FW6030 Weather Reports


Display with metric or nautical units.
time (UTC)temp
F
wind
direction
speed
MPH
gust
MPH
rain 1hr
in
rain 24hr
in
rain mn
in
humidity
%
barometer
mb
20260509213623 86 360 5.0 13.0 0.00 0.01 0.01 55 1009.3
20260509213523 86 360 5.0 13.0 0.00 0.01 0.01 55 1009.4
20260509213425 86 360 6.0 13.0 0.00 0.01 0.01 55 1009.4
20260509213344 85 360 6.0 13.0 0.00 0.01 0.01 54 1009.5
20260509213229 85 360 7.0 13.0 0.00 0.01 0.01 54 1009.5
20260509213130 85 360 7.0 15.0 0.00 0.01 0.01 52 1009.5
20260509213031 85 360 7.0 15.0 0.00 0.01 0.01 52 1009.4
20260509212932 85 360 6.0 15.0 0.00 0.01 0.01 52 1009.4
20260509212832 85 360 7.0 15.0 0.00 0.01 0.01 52 1009.5
20260509212734 85 360 7.0 15.0 0.00 0.01 0.01 52 1009.6
20260509212619 85 360 7.0 15.0 0.00 0.01 0.01 52 1009.6
20260509212519 85 360 8.0 15.0 0.00 0.01 0.01 53 1009.7
20260509212419 84 360 9.0 16.0 0.00 0.01 0.01 52 1009.7
20260509212320 84 360 8.0 16.0 0.00 0.01 0.01 52 1009.7
20260509212220 84 360 8.0 16.0 0.00 0.01 0.01 52 1009.8
20260509212119 83 360 8.0 20.0 0.00 0.01 0.01 53 1009.7
20260509212020 83 360 7.0 20.0 0.00 0.01 0.01 53 1009.8
20260509211940 83 360 8.0 20.0 0.00 0.01 0.01 54 1009.7
20260509211844 83 360 9.0 20.0 0.00 0.01 0.01 53 1009.8
20260509211723 83 360 9.0 20.0 0.00 0.01 0.01 53 1009.8
20260509211624 82 360 9.0 20.0 0.00 0.01 0.01 54 1009.8
20260509211525 82 360 8.0 20.0 0.00 0.01 0.01 54 1009.8
20260509211446 82 360 7.0 20.0 0.00 0.01 0.01 54 1009.8
20260509211324 82 360 8.0 22.0 0.00 0.01 0.01 54 1009.9
20260509211225 82 360 10.0 22.0 0.00 0.01 0.01 55 1009.9
20260509211145 82 360 11.0 22.0 0.00 0.01 0.01 55 1009.9
20260509211029 82 360 13.0 22.0 0.00 0.01 0.01 55 1009.9
20260509210929 82 360 14.0 22.0 0.00 0.01 0.01 55 1009.9
20260509210830 82 360 13.0 22.0 0.00 0.01 0.01 54 1010.0
20260509210732 82 360 12.0 22.0 0.00 0.01 0.01 55 1010.0
20260509210632 82 360 12.0 22.0 0.00 0.01 0.01 55 1010.1
20260509210533 83 360 12.0 20.0 0.00 0.01 0.01 56 1010.1
20260509210418 83 360 11.0 20.0 0.00 0.01 0.01 55 1010.0
20260509210338 83 360 11.0 20.0 0.00 0.01 0.01 55 1009.9
20260509210237 83 360 11.0 20.0 0.00 0.01 0.01 55 1009.9
20260509210158 83 360 11.0 20.0 0.00 0.01 0.01 56 1010.0
20260509210058 83 360 11.0 20.0 0.00 0.01 0.01 57 1009.9
20260509205957 83 360 11.0 20.0 0.00 0.01 0.01 57 1009.9
20260509205818 83 360 11.0 23.0 0.00 0.01 0.01 56 1010.0
20260509205717 83 360 10.0 23.0 0.00 0.01 0.01 55 1010.0
20260509205621 83 360 9.0 23.0 0.00 0.01 0.01 55 1010.0
20260509205522 83 360 9.0 23.0 0.00 0.01 0.01 55 1010.0
20260509205422 83 360 7.0 23.0 0.00 0.01 0.01 55 1010.0
20260509205323 83 360 8.0 23.0 0.00 0.01 0.01 55 1010.0
20260509205223 83 360 10.0 23.0 0.00 0.01 0.01 55 1009.9
20260509205124 83 360 11.0 23.0 0.00 0.01 0.01 55 1010.0
20260509205025 83 360 12.0 23.0 0.00 0.01 0.01 55 1010.1
20260509204929 84 360 11.0 23.0 0.00 0.01 0.01 54 1010.1
20260509204829 84 360 11.0 23.0 0.00 0.01 0.01 53 1010.1
20260509204730 85 360 8.0 23.0 0.00 0.01 0.01 56 1010.1
20260509204630 85 360 6.0 20.0 0.00 0.01 0.01 60 1010.1
20260509204530 85 360 5.0 20.0 0.00 0.01 0.01 60 1010.1
20260509204430 85 360 5.0 20.0 0.00 0.01 0.01 60 1010.1
20260509204351 84 360 6.0 20.0 0.00 0.01 0.01 61 1010.1
20260509204250 84 360 7.0 20.0 0.00 0.01 0.01 61 1010.1
20260509204134 84 360 8.0 20.0 0.00 0.01 0.01 61 1010.2
20260509204054 84 360 9.0 20.0 0.00 0.01 0.01 61 1010.2
20260509203933 84 360 9.0 20.0 0.00 0.01 0.01 61 1010.2
20260509203831 84 360 11.0 20.0 0.00 0.01 0.01 61 1010.2
20260509203731 84 360 12.0 20.0 0.00 0.01 0.01 62 1010.3
20260509203632 84 360 11.0 20.0 0.00 0.01 0.01 62 1010.3
20260509203516 84 360 10.0 18.0 0.00 0.01 0.01 64 1010.2
20260509203418 84 360 8.0 14.0 0.00 0.01 0.01 66 1010.2
20260509203318 84 360 6.0 14.0 0.00 0.01 0.01 66 1010.3
20260509203219 84 360 6.0 14.0 0.00 0.01 0.01 66 1010.3
20260509203119 84 360 6.0 12.0 0.00 0.01 0.01 66 1010.3
20260509203020 84 360 6.0 12.0 0.00 0.01 0.01 66 1010.2
20260509202919 84 360 6.0 12.0 0.00 0.01 0.01 65 1010.3
20260509202824 84 360 6.0 12.0 0.00 0.01 0.01 66 1010.3
20260509202723 84 360 7.0 12.0 0.00 0.01 0.01 65 1010.3
20260509202621 84 360 8.0 13.0 0.00 0.01 0.01 65 1010.3
20260509202521 85 360 7.0 16.0 0.00 0.01 0.01 65 1010.3
20260509202421 85 360 7.0 16.0 0.00 0.01 0.01 65 1010.4
20260509202322 85 360 7.0 16.0 0.00 0.01 0.01 65 1010.3
20260509202223 85 360 7.0 16.0 0.00 0.01 0.01 65 1010.3
20260509202128 85 360 7.0 16.0 0.00 0.01 0.01 65 1010.3
20260509202049 85 360 8.0 16.0 0.00 0.01 0.01 63 1010.3
20260509201928 86 360 9.0 16.0 0.00 0.01 0.01 63 1010.3
20260509201828 86 360 10.0 16.0 0.00 0.01 0.01 61 1010.3
20260509201729 87 360 9.0 16.0 0.00 0.01 0.01 61 1010.2
20260509201629 88 360 8.0 16.0 0.00 0.01 0.01 60 1010.3
20260509201529 89 360 7.0 15.0 0.00 0.01 0.01 59 1010.3
20260509201434 90 360 6.0 12.0 0.00 0.01 0.01 55 1010.3
20260509201336 90 360 6.0 12.0 0.00 0.01 0.01 55 1010.3
20260509201216 91 360 6.0 12.0 0.00 0.01 0.01 55 1010.3
20260509201137 91 360 6.0 12.0 0.00 0.01 0.01 55 1010.3
20260509201058 91 360 6.0 12.0 0.00 0.01 0.01 55 1010.3
20260509200957 90 17 6.0 12.0 0.00 0.01 0.01 55 1010.3
20260509200816 90 360 5.0 11.0 0.00 0.01 0.01 55 1010.3
20260509200721 90 344 5.0 11.0 0.00 0.01 0.01 55 1010.4
20260509200622 90 360 4.0 8.0 0.00 0.01 0.01 55 1010.4
20260509200523 90 360 4.0 8.0 0.00 0.01 0.01 54 1010.3
20260509200424 90 360 4.0 8.0 0.00 0.01 0.01 54 1010.4
20260509200344 91 360 3.0 8.0 0.00 0.01 0.01 54 1010.4
20260509200224 91 360 3.0 6.0 0.00 0.01 0.01 54 1010.3
20260509200123 91 360 3.0 5.0 0.00 0.01 0.01 53 1010.3
20260509200028 91 360 2.0 5.0 0.00 0.01 0.01 53 1010.3
20260509195928 91 360 2.0 4.0 0.00 0.01 0.01 53 1010.4
20260509195828 91 360 2.0 4.0 0.00 0.01 0.01 53 1010.4
20260509195730 91 360 2.0 4.0 0.00 0.01 0.01 53 1010.4
20260509195628 92 360 1.0 5.0 0.00 0.01 0.01 51 1010.4
20260509195528 92 360 2.0 5.0 0.00 0.01 0.01 51 1010.4
20260509195428 92 360 2.0 5.0 0.00 0.01 0.01 51 1010.4
20260509195333 92 360 2.0 5.0 0.00 0.01 0.01 52 1010.5
20260509195233 93 360 1.0 5.0 0.00 0.01 0.01 52 1010.4
20260509195134 93 360 1.0 5.0 0.00 0.01 0.01 52 1010.5
20260509195034 92 360 1.0 5.0 0.00 0.01 0.01 51 1010.4
20260509194954 92 360 1.0 5.0 0.00 0.01 0.01 52 1010.5
20260509194834 92 360 2.0 8.0 0.00 0.01 0.01 51 1010.4
20260509194719 92 360 2.0 8.0 0.00 0.01 0.01 53 1010.4
20260509194620 92 360 3.0 8.0 0.00 0.01 0.01 53 1010.4
20260509194521 92 360 3.0 8.0 0.00 0.01 0.01 52 1010.4
20260509194420 92 360 4.0 8.0 0.00 0.01 0.01 52 1010.4
20260509194341 92 360 4.0 8.0 0.00 0.01 0.01 52 1010.5
20260509194221 92 360 3.0 8.0 0.00 0.01 0.01 52 1010.4
20260509194122 92 360 3.0 8.0 0.00 0.01 0.01 52 1010.5
20260509194025 92 360 3.0 8.0 0.00 0.01 0.01 53 1010.4
20260509193927 92 360 2.0 8.0 0.00 0.01 0.01 53 1010.4
20260509193846 92 360 2.0 6.0 0.00 0.01 0.01 53 1010.5
20260509193746 92 360 3.0 6.0 0.00 0.01 0.01 53 1010.5
20260509193626 92 360 3.0 6.0 0.00 0.01 0.01 53 1010.5
20260509193525 92 360 2.0 6.0 0.00 0.01 0.01 53 1010.4
20260509193428 92 360 2.0 6.0 0.00 0.01 0.01 53 1010.4
20260509193327 92 360 2.0 6.0 0.00 0.01 0.01 53 1010.4
20260509193253 92 360 2.0 9.0 0.00 0.01 0.01 53 1010.4
20260509193132 92 360 2.0 9.0 0.00 0.01 0.01 53 1010.4
20260509193033 92 360 2.0 9.0 0.00 0.01 0.01 53 1010.5
20260509192934 92 360 3.0 9.0 0.00 0.01 0.01 53 1010.4
20260509192835 92 360 3.0 9.0 0.00 0.01 0.01 53 1010.5
20260509192737 92 360 3.0 9.0 0.00 0.01 0.01 53 1010.5
20260509192620 92 360 4.0 9.0 0.00 0.01 0.01 53 1010.6
20260509192520 91 360 4.0 9.0 0.00 0.01 0.01 53 1010.6
20260509192422 91 360 4.0 9.0 0.00 0.01 0.01 55 1010.6
20260509192322 91 360 3.0 8.0 0.00 0.01 0.01 54 1010.6
20260509192223 91 360 3.0 8.0 0.00 0.01 0.01 50 1010.6
20260509192144 92 360 3.0 8.0 0.00 0.01 0.01 50 1010.6
20260509192023 92 360 3.0 8.0 0.00 0.01 0.01 50 1010.7
20260509191946 93 360 3.0 8.0 0.00 0.01 0.01 50 1010.6
20260509191830 93 360 3.0 8.0 0.00 0.01 0.01 50 1010.6
20260509191750 93 360 2.0 8.0 0.00 0.01 0.01 50 1010.6
20260509191630 94 360 2.0 8.0 0.00 0.01 0.01 51 1010.6
20260509191531 94 360 2.0 8.0 0.00 0.01 0.01 51 1010.7
20260509191451 94 360 2.0 8.0 0.00 0.01 0.01 51 1010.7
20260509191331 94 360 2.0 8.0 0.00 0.01 0.01 51 1010.7
20260509191251 94 360 3.0 8.0 0.00 0.01 0.01 51 1010.6
20260509191130 94 360 3.0 8.0 0.00 0.01 0.01 51 1010.6
20260509191051 94 360 2.0 8.0 0.00 0.01 0.01 53 1010.7
20260509190934 94 360 3.0 8.0 0.00 0.01 0.01 53 1010.7
20260509190834 94 360 3.0 8.0 0.00 0.01 0.01 53 1010.7
20260509190755 93 360 3.0 8.0 0.00 0.01 0.01 53 1010.7
20260509190634 93 360 3.0 8.0 0.00 0.01 0.01 53 1010.7
20260509190535 93 360 3.0 8.0 0.00 0.01 0.01 54 1010.8
20260509190435 93 360 3.0 8.0 0.00 0.01 0.01 53 1010.7
20260509190320 93 360 3.0 8.0 0.00 0.01 0.01 53 1010.8
20260509190220 93 360 3.0 8.0 0.00 0.01 0.01 53 1010.8
20260509190120 93 360 3.0 8.0 0.00 0.01 0.01 52 1010.8
20260509190020 93 360 3.0 8.0 0.00 0.01 0.01 52 1010.8
20260509185941 93 360 2.0 8.0 0.00 0.01 0.01 52 1010.9
20260509185709 92 360 2.0 6.0 0.00 0.01 0.01 54 1010.9
20260509185511 92 360 2.0 6.0 0.00 0.01 0.01 54 1010.9
20260509185217 92 360 2.0 6.0 0.00 0.01 0.01 54 1010.9
20260509185117 92 360 2.0 6.0 0.00 0.01 0.01 54 1010.9
20260509185017 92 360 2.0 6.0 0.00 0.01 0.01 54 1011.0
20260509184918 92 360 2.0 6.0 0.00 0.01 0.01 54 1011.0
20260509184819 92 360 2.0 10.0 0.00 0.01 0.01 54 1011.0
20260509184739 92 360 2.0 10.0 0.00 0.01 0.01 54 1011.0
20260509184618 92 360 3.0 10.0 0.00 0.01 0.01 55 1011.1
20260509184523 92 360 3.0 10.0 0.00 0.01 0.01 55 1011.0
20260509184443 92 360 3.0 10.0 0.00 0.01 0.01 56 1011.1
20260509184322 92 360 3.0 10.0 0.00 0.01 0.01 56 1011.2
20260509184223 91 360 3.0 10.0 0.00 0.01 0.01 56 1011.2
20260509184144 91 360 3.0 10.0 0.00 0.01 0.01 56 1011.2
20260509184023 91 360 3.0 10.0 0.00 0.01 0.01 57 1011.2
20260509183923 91 360 3.0 10.0 0.00 0.01 0.01 57 1011.3
20260509183828 91 360 4.0 10.0 0.00 0.01 0.01 56 1011.3
20260509183728 91 360 4.0 10.0 0.00 0.01 0.01 57 1011.3
20260509183630 91 360 4.0 10.0 0.00 0.01 0.01 57 1011.2
20260509183550 91 360 4.0 10.0 0.00 0.01 0.01 57 1011.2
20260509183429 90 360 3.0 8.0 0.00 0.01 0.01 58 1011.3
20260509183330 90 360 2.0 8.0 0.00 0.01 0.01 58 1011.3
20260509183252 90 360 3.0 9.0 0.00 0.01 0.01 58 1011.3
20260509183152 89 360 3.0 9.0 0.00 0.01 0.01 58 1011.3
20260509183035 89 360 3.0 9.0 0.00 0.01 0.01 58 1011.3
20260509182916 89 360 3.0 9.0 0.00 0.01 0.01 58 1011.2
20260509182816 89 360 4.0 9.0 0.00 0.01 0.01 58 1011.3
20260509182737 89 360 4.0 9.0 0.00 0.01 0.01 58 1011.3
20260509182636 89 360 4.0 9.0 0.00 0.01 0.01 59 1011.3
20260509182516 89 360 4.0 9.0 0.00 0.01 0.01 59 1011.4
20260509182417 89 360 4.0 9.0 0.00 0.01 0.01 58 1011.4
20260509182321 89 360 3.0 6.0 0.00 0.01 0.01 58 1011.4
20260509182243 90 360 3.0 6.0 0.00 0.01 0.01 59 1011.5
20260509182143 90 360 3.0 6.0 0.00 0.01 0.01 58 1011.4
20260509182022 90 360 2.0 5.0 0.00 0.01 0.01 58 1011.5
20260509181923 91 360 2.0 5.0 0.00 0.01 0.01 55 1011.5
20260509181823 91 360 2.0 5.0 0.00 0.01 0.01 55 1011.5
20260509181723 92 360 2.0 5.0 0.00 0.01 0.01 55 1011.6
20260509181629 93 360 2.0 5.0 0.00 0.01 0.01 54 1011.6
20260509181549 93 360 2.0 5.0 0.00 0.01 0.01 54 1011.6
20260509181429 93 360 2.0 5.0 0.00 0.01 0.01 54 1011.6
20260509181350 93 360 2.0 5.0 0.00 0.01 0.01 55 1011.6
20260509181248 93 360 2.0 6.0 0.00 0.01 0.01 56 1011.7
20260509181127 93 360 2.0 6.0 0.00 0.01 0.01 56 1011.7
20260509181028 93 360 2.0 6.0 0.00 0.01 0.01 56 1011.7
20260509180928 93 360 2.0 6.0 0.00 0.01 0.01 56 1011.6
20260509180832 93 360 3.0 6.0 0.00 0.01 0.01 56 1011.6
20260509180732 93 360 3.0 6.0 0.00 0.01 0.01 56 1011.6
20260509180633 93 360 3.0 6.0 0.00 0.01 0.01 55 1011.6
20260509180554 93 360 3.0 6.0 0.00 0.01 0.01 56 1011.6
20260509180433 93 360 2.0 6.0 0.00 0.01 0.01 56 1011.5
20260509180333 93 360 2.0 6.0 0.00 0.01 0.01 57 1011.5
20260509180253 93 360 2.0 6.0 0.00 0.01 0.01 57 1011.6
20260509180133 92 360 2.0 6.0 0.00 0.01 0.01 57 1011.6
20260509180018 92 360 2.0 6.0 0.00 0.01 0.01 57 1011.6
20260509175938 92 360 2.0 6.0 0.00 0.01 0.01 57 1011.6
20260509175819 92 360 2.0 6.0 0.00 0.01 0.01 57 1011.7
20260509175719 92 360 2.0 6.0 0.00 0.01 0.01 57 1011.6
20260509175618 92 360 2.0 6.0 0.00 0.01 0.01 57 1011.7
20260509175539 91 360 2.0 6.0 0.00 0.01 0.01 59 1011.7
20260509175418 91 360 2.0 6.0 0.00 0.01 0.01 59 1011.7
20260509175322 91 360 2.0 6.0 0.00 0.01 0.01 59 1011.8
20260509175222 91 360 2.0 6.0 0.00 0.01 0.01 60 1011.8
20260509175123 91 360 2.0 6.0 0.00 0.01 0.01 60 1011.8
20260509175043 90 360 2.0 4.0 0.00 0.01 0.01 60 1011.9
20260509174924 90 360 2.0 4.0 0.00 0.01 0.01 61 1011.8
20260509174824 90 360 2.0 4.0 0.00 0.01 0.01 61 1011.8
20260509174725 90 360 2.0 6.0 0.00 0.01 0.01 61 1011.8
20260509174629 90 360 2.0 6.0 0.00 0.01 0.01 63 1011.8
20260509174528 90 360 2.0 6.0 0.00 0.01 0.01 63 1011.8
20260509174429 89 360 2.0 6.0 0.00 0.01 0.01 63 1011.8
20260509174330 89 360 2.0 8.0 0.00 0.01 0.01 63 1011.9
20260509174230 88 360 2.0 8.0 0.00 0.01 0.01 63 1011.9
20260509174131 88 360 2.0 8.0 0.00 0.01 0.01 63 1011.9
20260509174030 88 360 2.0 8.0 0.00 0.01 0.01 62 1012.0
20260509173951 88 360 3.0 8.0 0.00 0.01 0.01 62 1012.0
20260509173834 88 360 2.0 8.0 0.00 0.01 0.01 63 1012.1
20260509173735 88 360 2.0 8.0 0.00 0.01 0.01 63 1012.1
20260509173655 88 284 2.0 8.0 0.00 0.01 0.01 66 1012.1
20260509173533 88 360 3.0 8.0 0.00 0.01 0.01 66 1012.2
20260509173434 88 360 3.0 8.0 0.00 0.01 0.01 66 1012.3
20260509173334 87 360 3.0 8.0 0.00 0.01 0.01 66 1012.3
20260509173235 87 360 2.0 6.0 0.00 0.01 0.01 66 1012.3
20260509173119 87 360 2.0 8.0 0.00 0.01 0.01 66 1012.3
20260509173020 87 360 2.0 8.0 0.00 0.01 0.01 64 1012.3
20260509172921 87 360 2.0 9.0 0.00 0.01 0.01 64 1012.3
20260509172823 88 360 2.0 9.0 0.00 0.01 0.01 64 1012.3
20260509172723 88 360 2.0 9.0 0.00 0.01 0.01 64 1012.3
20260509172642 88 360 2.0 9.0 0.00 0.01 0.01 67 1012.3
20260509172522 88 360 2.0 9.0 0.00 0.01 0.01 67 1012.3
20260509172428 87 360 2.0 9.0 0.00 0.01 0.01 67 1012.3
20260509172328 87 360 2.0 11.0 0.00 0.01 0.01 67 1012.2
20260509172229 87 360 2.0 11.0 0.00 0.01 0.01 66 1012.2
20260509172129 86 360 3.0 11.0 0.00 0.01 0.01 67 1012.2
20260509172030 86 360 3.0 11.0 0.00 0.01 0.01 68 1012.1
20260509171930 86 360 3.0 11.0 0.00 0.01 0.01 68 1012.2
20260509171850 86 360 3.0 11.0 0.00 0.01 0.01 67 1012.2
20260509171735 86 360 3.0 11.0 0.00 0.01 0.01 65 1012.1
20260509171616 87 360 4.0 11.0 0.00 0.01 0.01 65 1012.2
20260509171516 87 360 4.0 11.0 0.00 0.01 0.01 65 1012.1
20260509171417 87 360 4.0 11.0 0.00 0.01 0.01 65 1012.0
20260509171318 87 360 3.0 10.0 0.00 0.01 0.01 68 1012.0
20260509171218 87 360 3.0 10.0 0.00 0.01 0.01 68 1012.0
20260509171122 87 360 3.0 10.0 0.00 0.01 0.01 68 1012.1
20260509171022 87 360 3.0 10.0 0.00 0.01 0.01 68 1012.0
20260509170923 86 360 3.0 10.0 0.00 0.01 0.01 68 1012.0
20260509170843 86 360 3.0 6.0 0.00 0.01 0.01 69 1012.1
20260509170723 86 360 3.0 6.0 0.00 0.01 0.01 69 1012.1
20260509170623 85 360 3.0 6.0 0.00 0.01 0.01 69 1012.1
20260509170524 85 360 3.0 6.0 0.00 0.01 0.01 69 1012.1
20260509170429 85 360 3.0 6.0 0.00 0.01 0.01 69 1012.1
20260509170329 85 360 3.0 6.0 0.00 0.01 0.01 69 1012.2
20260509170229 85 360 3.0 6.0 0.00 0.01 0.01 68 1012.2
20260509170150 85 360 2.0 6.0 0.00 0.01 0.01 68 1012.2
20260509170030 86 360 2.0 8.0 0.00 0.01 0.01 68 1012.1
20260509165931 86 360 2.0 8.0 0.00 0.01 0.01 68 1012.3
20260509165831 86 360 2.0 8.0 0.00 0.01 0.01 68 1012.2
20260509165757 86 360 2.0 8.0 0.00 0.01 0.01 68 1012.2
20260509165635 86 360 3.0 9.0 0.00 0.01 0.01 70 1012.3
20260509165535 86 360 3.0 9.0 0.00 0.01 0.01 69 1012.3
20260509165415 86 360 3.0 9.0 0.00 0.01 0.01 69 1012.3
20260509165316 86 360 3.0 9.0 0.00 0.01 0.01 69 1012.3
20260509165219 85 360 3.0 9.0 0.00 0.01 0.01 69 1012.3
20260509165119 85 360 3.0 9.0 0.00 0.01 0.01 69 1012.2
20260509165044 85 360 3.0 9.0 0.00 0.01 0.01 69 1012.4
20260509164924 86 360 3.0 9.0 0.00 0.01 0.01 66 1012.3
20260509164825 86 360 3.0 9.0 0.00 0.01 0.01 66 1012.3
20260509164725 86 360 3.0 9.0 0.00 0.01 0.01 66 1012.3
20260509164646 86 360 3.0 9.0 0.00 0.01 0.01 68 1012.2
20260509164545 86 360 2.0 9.0 0.00 0.01 0.01 68 1012.3
20260509164424 87 360 3.0 9.0 0.00 0.01 0.01 65 1012.1
20260509164324 88 360 2.0 8.0 0.00 0.01 0.01 65 1012.3
20260509164229 88 360 2.0 5.0 0.00 0.01 0.01 67 1012.3
20260509164128 88 360 2.0 5.0 0.00 0.01 0.01 67 1012.3
20260509164028 87 360 2.0 5.0 0.00 0.01 0.01 67 1012.3
20260509163928 87 360 2.0 5.0 0.00 0.01 0.01 67 1012.3
20260509163828 87 360 2.0 5.0 0.00 0.01 0.01 68 1012.3
20260509163729 87 360 2.0 5.0 0.00 0.01 0.01 67 1012.3
20260509163630 87 360 2.0 5.0 0.00 0.01 0.01 67 1012.3
20260509163534 87 360 1.0 5.0 0.00 0.01 0.01 67 1012.3
20260509163433 87 360 1.0 5.0 0.00 0.01 0.01 67 1012.5
20260509163353 87 360 1.0 5.0 0.00 0.01 0.01 67 1012.4
20260509163253 87 360 2.0 5.0 0.00 0.01 0.01 67 1012.4
20260509163152 87 360 2.0 5.0 0.00 0.01 0.01 67 1012.4
20260509163032 87 360 2.0 5.0 0.00 0.01 0.01 67 1012.3
20260509162932 87 360 2.0 5.0 0.00 0.01 0.01 69 1012.4
20260509162834 86 360 2.0 5.0 0.00 0.01 0.01 69 1012.4
20260509162737 86 360 2.0 5.0 0.00 0.01 0.01 71 1012.3
20260509162617 86 360 2.0 5.0 0.00 0.01 0.01 71 1012.3
20260509162537 85 360 2.0 5.0 0.00 0.01 0.01 70 1012.3
20260509162417 85 360 2.0 5.0 0.00 0.01 0.01 70 1012.3
20260509162318 85 360 1.0 5.0 0.00 0.01 0.01 70 1012.3
20260509162218 85 360 1.0 5.0 0.00 0.01 0.01 71 1012.3
20260509162118 85 360 2.0 5.0 0.00 0.01 0.01 69 1012.3
20260509162017 86 360 2.0 9.0 0.00 0.01 0.01 69 1012.4
20260509161922 86 360 2.0 9.0 0.00 0.01 0.01 70 1012.3
20260509161822 85 360 2.0 9.0 0.00 0.01 0.01 70 1012.3
20260509161723 85 360 3.0 9.0 0.00 0.01 0.01 72 1012.3
20260509161623 85 360 3.0 9.0 0.00 0.01 0.01 72 1012.2
20260509161524 85 360 3.0 9.0 0.00 0.01 0.01 72 1012.3
20260509161423 84 360 3.0 9.0 0.00 0.01 0.01 72 1012.3
20260509161328 84 360 3.0 9.0 0.00 0.01 0.01 72 1012.3
20260509161230 84 360 3.0 9.0 0.00 0.01 0.01 72 1012.3
20260509161131 84 360 2.0 9.0 0.00 0.01 0.01 72 1012.3
20260509161032 84 360 2.0 9.0 0.00 0.01 0.01 71 1012.2
20260509160951 84 360 2.0 9.0 0.00 0.01 0.01 74 1012.3
20260509160832 84 360 1.0 5.0 0.00 0.01 0.01 74 1012.3
20260509160733 84 360 1.0 5.0 0.00 0.01 0.01 76 1012.2
20260509160637 83 360 1.0 5.0 0.00 0.01 0.01 76 1012.3
20260509160537 83 360 1.0 6.0 0.00 0.01 0.01 76 1012.3
20260509160436 83 360 2.0 6.0 0.00 0.01 0.01 76 1012.3
20260509160335 82 360 2.0 6.0 0.00 0.01 0.01 76 1012.3
20260509160216 82 360 2.0 6.0 0.00 0.01 0.01 76 1012.3
20260509160116 81 360 2.0 6.0 0.00 0.01 0.01 76 1012.3
20260509160017 81 360 2.0 8.0 0.00 0.01 0.01 77 1012.3
20260509155922 81 360 2.0 8.0 0.00 0.01 0.01 78 1012.3
20260509155843 81 360 2.0 8.0 0.00 0.01 0.01 78 1012.4
20260509155742 81 360 2.0 8.0 0.00 0.01 0.01 78 1012.4
20260509155641 81 360 2.0 8.0 0.00 0.01 0.01 78 1012.3
20260509155521 81 360 2.0 8.0 0.00 0.01 0.01 79 1012.4
20260509155421 80 360 2.0 8.0 0.00 0.01 0.01 81 1012.4
20260509155320 80 360 2.0 8.0 0.00 0.01 0.01 81 1012.4
20260509155220 80 360 3.0 8.0 0.00 0.01 0.01 81 1012.4
20260509155121 80 360 3.0 8.0 0.00 0.01 0.01 82 1012.4
20260509155026 79 360 3.0 8.0 0.00 0.01 0.01 82 1012.4
20260509154926 79 360 3.0 8.0 0.00 0.01 0.01 82 1012.4
20260509154846 79 360 3.0 8.0 0.00 0.01 0.01 82 1012.4
20260509154726 79 360 4.0 8.0 0.00 0.01 0.01 82 1012.4
20260509154626 79 360 3.0 8.0 0.00 0.01 0.01 83 1012.4
20260509154526 79 360 3.0 8.0 0.00 0.01 0.01 83 1012.4
20260509154427 79 360 3.0 11.0 0.00 0.01 0.01 83 1012.4
20260509154331 79 360 3.0 11.0 0.00 0.01 0.01 84 1012.4
20260509154231 78 360 3.0 11.0 0.00 0.01 0.01 84 1012.4
20260509154132 78 360 4.0 11.0 0.00 0.01 0.01 84 1012.5
20260509154031 78 360 4.0 11.0 0.00 0.01 0.01 84 1012.4
20260509153932 78 360 4.0 11.0 0.00 0.01 0.01 85 1012.5
20260509153830 78 360 4.0 11.0 0.00 0.01 0.01 85 1012.4
20260509153733 78 360 4.0 11.0 0.00 0.01 0.01 85 1012.5
20260509153633 78 360 4.0 12.0 0.00 0.01 0.01 85 1012.5
20260509153534 78 360 4.0 12.0 0.00 0.01 0.01 87 1012.5
20260509153434 78 360 3.0 12.0 0.00 0.01 0.01 87 1012.5
20260509153333 78 360 4.0 12.0 0.00 0.01 0.01 87 1012.5
20260509153233 78 360 4.0 12.0 0.00 0.01 0.01 87 1012.5
20260509153134 78 360 4.0 12.0 0.00 0.01 0.01 87 1012.5
20260509153017 78 360 4.0 12.0 0.00 0.01 0.01 87 1012.5
20260509152938 78 360 3.0 12.0 0.00 0.01 0.01 89 1012.5
20260509152819 77 360 3.0 12.0 0.00 0.01 0.01 89 1012.5
20260509152718 77 360 4.0 12.0 0.00 0.01 0.01 90 1012.5
20260509152618 77 360 4.0 12.0 0.00 0.01 0.01 90 1012.5
20260509152519 76 360 4.0 12.0 0.00 0.01 0.01 90 1012.5
20260509152438 76 360 5.0 12.0 0.00 0.01 0.01 91 1012.5
20260509152319 76 360 6.0 12.0 0.00 0.01 0.01 90 1012.6
20260509152243 76 360 6.0 12.0 0.00 0.01 0.01 91 1012.6
20260509152123 75 360 6.0 11.0 0.00 0.01 0.01 91 1012.6
20260509152021 75 360 5.0 10.0 0.00 0.01 0.01 91 1012.6
20260509151921 75 360 5.0 10.0 0.00 0.01 0.01 91 1012.6
20260509151820 75 360 4.0 11.0 0.00 0.01 0.01 92 1012.6
20260509151719 75 360 4.0 11.0 0.00 0.01 0.01 92 1012.6
20260509151641 75 360 3.0 11.0 0.00 0.01 0.01 92 1012.5
20260509151520 75 360 4.0 11.0 0.00 0.01 0.01 92 1012.7
20260509151424 75 360 4.0 11.0 0.00 0.01 0.01 92 1012.6
20260509151345 74 360 4.0 11.0 0.00 0.01 0.01 92 1012.6
20260509151224 74 360 5.0 11.0 0.00 0.01 0.01 92 1012.5
20260509151125 74 360 6.0 11.0 0.00 0.01 0.01 92 1012.4
20260509151024 74 360 6.0 11.0 0.00 0.01 0.01 92 1012.4
20260509150926 74 360 6.0 11.0 0.00 0.01 0.01 92 1012.4
20260509150826 74 360 6.0 11.0 0.00 0.01 0.01 92 1012.4
20260509150726 74 360 4.0 10.0 0.00 0.01 0.01 93 1012.5
20260509150630 74 360 4.0 9.0 0.00 0.01 0.01 93 1012.5
20260509150532 74 360 3.0 6.0 0.00 0.01 0.01 93 1012.4
20260509150432 74 360 3.0 6.0 0.00 0.01 0.01 93 1012.5
20260509150333 74 360 3.0 6.0 0.00 0.01 0.01 93 1012.5
20260509150232 74 360 3.0 6.0 0.00 0.01 0.01 93 1012.5
20260509150133 74 360 2.0 9.0 0.00 0.01 0.01 93 1012.6
20260509150037 74 360 2.0 9.0 0.00 0.01 0.01 93 1012.6
20260509145917 74 360 2.0 9.0 0.00 0.01 0.01 93 1012.6
20260509145837 74 360 3.0 11.0 0.00 0.01 0.01 93 1012.6
20260509145737 74 360 3.0 11.0 0.00 0.01 0.01 93 1012.5
20260509145616 74 360 5.0 11.0 0.00 0.01 0.01 93 1012.4
20260509145516 73 360 5.0 11.0 0.00 0.01 0.01 93 1012.3
20260509145417 73 360 6.0 11.0 0.00 0.01 0.01 93 1012.3
20260509145337 73 360 6.0 13.0 0.00 0.01 0.01 93 1012.3
20260509145221 73 360 6.0 14.0 0.00 0.01 0.01 93 1012.3
20260509145122 73 360 6.0 14.0 0.00 0.01 0.01 93 1012.3
20260509145024 73 360 6.0 14.0 0.00 0.01 0.01 93 1012.3
20260509144925 73 360 7.0 14.0 0.00 0.01 0.01 93 1012.3
20260509144824 73 360 7.0 14.0 0.00 0.01 0.01 93 1012.3
20260509144725 73 360 8.0 14.0 0.00 0.01 0.01 93 1012.2
20260509144629 73 360 8.0 14.0 0.00 0.01 0.01 93 1012.2
20260509144531 73 360 8.0 14.0 0.00 0.01 0.01 93 1012.1
20260509144431 73 360 8.0 14.0 0.00 0.01 0.01 93 1012.1
20260509144331 73 360 7.0 13.0 0.00 0.01 0.01 93 1012.2
20260509144232 73 360 6.0 13.0 0.00 0.01 0.01 93 1012.1
20260509144131 73 360 5.0 13.0 0.00 0.01 0.01 93 1012.0
20260509144032 73 360 5.0 13.0 0.00 0.01 0.01 93 1012.1
20260509143936 73 360 5.0 13.0 0.00 0.01 0.01 93 1012.0
20260509143836 73 360 6.0 13.0 0.00 0.01 0.01 93 1012.1
20260509143716 73 360 6.0 13.0 0.00 0.01 0.01 93 1012.0
20260509143617 73 360 7.0 13.0 0.00 0.01 0.01 93 1012.1
20260509143518 73 360 7.0 13.0 0.00 0.01 0.01 93 1012.1
20260509143418 73 360 8.0 13.0 0.00 0.01 0.01 93 1012.1
20260509143320 73 360 7.0 13.0 0.00 0.01 0.01 93 1012.0
20260509143224 73 360 8.0 13.0 0.00 0.01 0.01 94 1011.9
20260509143125 73 360 6.0 12.0 0.00 0.01 0.01 94 1011.9
20260509143025 73 360 5.0 12.0 0.00 0.01 0.01 94 1011.9
20260509142926 73 360 5.0 13.0 0.00 0.01 0.01 94 1011.8
20260509142826 73 360 5.0 13.0 0.00 0.01 0.01 94 1011.8
20260509142726 73 360 6.0 16.0 0.00 0.01 0.01 94 1011.8
20260509142630 73 360 7.0 16.0 0.00 0.01 0.01 94 1011.8
20260509142531 73 360 8.0 16.0 0.00 0.01 0.01 94 1011.9
20260509142431 73 360 8.0 16.0 0.00 0.01 0.01 94 1011.9
20260509142331 73 360 8.0 16.0 0.00 0.01 0.01 94 1011.9
20260509142230 73 360 9.0 16.0 0.00 0.01 0.01 94 1011.9
20260509142131 73 360 8.0 16.0 0.00 0.01 0.01 94 1012.1
20260509142031 73 360 8.0 16.0 0.00 0.01 0.01 94 1012.0
20260509141915 73 360 7.0 16.0 0.00 0.01 0.01 94 1012.0
20260509141835 73 360 8.0 15.0 0.00 0.01 0.01 94 1012.0
20260509141716 73 360 8.0 15.0 0.00 0.01 0.01 94 1011.9
20260509141617 73 360 9.0 15.0 0.00 0.01 0.01 94 1011.8
20260509141537 73 360 8.0 15.0 0.00 0.01 0.01 94 1011.8
20260509141437 73 360 7.0 15.0 0.00 0.01 0.01 94 1011.7
20260509141316 73 360 7.0 15.0 0.00 0.01 0.01 94 1011.7
20260509141222 73 360 7.0 15.0 0.00 0.01 0.01 94 1011.7
20260509141122 73 360 7.0 12.0 0.00 0.01 0.01 94 1011.6
20260509141022 73 360 8.0 12.0 0.00 0.01 0.01 94 1011.6
20260509140923 73 360 9.0 12.0 0.00 0.01 0.01 94 1011.7
20260509140823 73 360 9.0 12.0 0.00 0.01 0.01 94 1011.7
20260509140723 73 360 9.0 11.0 0.00 0.01 0.01 94 1011.7
20260509140644 73 360 8.0 11.0 0.00 0.01 0.01 94 1011.7
20260509140528 73 360 7.0 11.0 0.00 0.01 0.01 94 1011.7
20260509140428 73 360 6.0 10.0 0.00 0.01 0.01 94 1011.6
20260509140328 73 360 6.0 10.0 0.00 0.01 0.01 94 1011.6
20260509140229 73 360 4.0 9.0 0.00 0.01 0.01 94 1011.6
20260509140149 73 360 4.0 9.0 0.00 0.01 0.01 94 1011.6
20260509140030 73 360 4.0 9.0 0.00 0.01 0.01 94 1011.6
20260509135950 73 360 3.0 9.0 0.00 0.01 0.01 95 1011.6
20260509135828 73 360 3.0 8.0 0.00 0.01 0.01 94 1011.6
20260509135732 73 360 3.0 6.0 0.00 0.01 0.01 94 1011.6
20260509135632 73 360 3.0 6.0 0.00 0.01 0.01 94 1011.6
20260509135532 73 360 3.0 6.0 0.00 0.01 0.01 94 1011.5
20260509135432 73 360 3.0 5.0 0.00 0.01 0.01 94 1011.6
20260509135333 73 360 2.0 5.0 0.00 0.01 0.01 94 1011.6
20260509135233 73 360 2.0 5.0 0.00 0.01 0.01 94 1011.6
20260509135134 72 360 2.0 5.0 0.00 0.01 0.01 94 1011.7
20260509135018 72 360 2.0 3.0 0.00 0.01 0.01 94 1011.8
20260509134918 72 360 1.0 3.0 0.00 0.01 0.01 94 1011.8
20260509134818 72 360 1.0 3.0 0.00 0.01 0.01 94 1011.9
20260509134718 72 360 1.0 3.0 0.00 0.01 0.01 94 1011.9
20260509134618 73 360 1.0 3.0 0.00 0.01 0.01 94 1012.0
20260509134538 73 360 0.0 2.0 0.00 0.01 0.01 94 1012.0
20260509134418 73 360 0.0 5.0 0.00 0.01 0.01 94 1012.0
20260509134338 73 360 0.0 5.0 0.00 0.01 0.01 94 1012.1
20260509134222 73 360 0.0 5.0 0.00 0.01 0.01 94 1012.1
20260509134124 73 360 0.0 10.0 0.00 0.01 0.01 94 1012.1
20260509134045 73 360 1.0 10.0 0.00 0.01 0.01 94 1012.1
20260509133923 73 360 1.0 10.0 0.00 0.01 0.01 94 1012.0
20260509133824 73 360 2.0 10.0 0.00 0.01 0.01 94 1012.1
20260509133744 73 360 2.0 10.0 0.00 0.01 0.01 94 1012.1
20260509133624 73 360 2.0 10.0 0.00 0.01 0.01 94 1012.1
20260509133528 73 360 3.0 10.0 0.00 0.01 0.01 94 1012.1
20260509133428 73 360 4.0 10.0 0.00 0.01 0.01 94 1012.1
20260509133349 73 360 5.0 10.0 0.00 0.01 0.01 94 1012.1
20260509133229 73 360 5.0 10.0 0.00 0.01 0.01 94 1012.1
20260509133128 73 360 5.0 10.0 0.00 0.01 0.01 94 1012.1
20260509133027 73 360 4.0 8.0 0.00 0.01 0.01 94 1012.1
20260509132927 73 360 3.0 8.0 0.00 0.01 0.01 94 1012.1
20260509132828 73 360 3.0 6.0 0.00 0.01 0.01 94 1012.0
20260509132730 73 360 4.0 6.0 0.00 0.01 0.01 94 1012.1
20260509132633 73 360 4.0 6.0 0.00 0.01 0.01 94 1012.1
20260509132534 72 360 3.0 6.0 0.00 0.01 0.01 94 1012.1
20260509132434 72 360 3.0 6.0 0.00 0.01 0.01 94 1012.2
20260509132335 72 360 2.0 6.0 0.00 0.01 0.01 94 1012.2
20260509132236 72 360 2.0 6.0 0.00 0.01 0.01 94 1012.2
20260509132156 72 360 2.0 6.0 0.00 0.01 0.01 94 1012.3
20260509132056 72 360 3.0 6.0 0.00 0.01 0.01 94 1012.3
20260509131919 72 360 4.0 6.0 0.00 0.01 0.01 94 1012.4
20260509131820 72 360 4.0 6.0 0.00 0.01 0.01 94 1012.4
20260509131721 72 360 4.0 6.0 0.00 0.01 0.01 94 1012.4
20260509131621 72 360 3.0 6.0 0.00 0.01 0.01 94 1012.5
20260509131542 72 360 3.0 6.0 0.00 0.01 0.01 94 1012.4
20260509131421 72 360 2.0 6.0 0.00 0.01 0.01 94 1012.4
20260509131322 72 360 3.0 6.0 0.00 0.01 0.01 94 1012.5
20260509131226 72 360 3.0 6.0 0.00 0.01 0.01 94 1012.4
20260509131127 72 336 3.0 6.0 0.00 0.01 0.01 94 1012.4
20260509131048 72 360 3.0 6.0 0.00 0.01 0.01 94 1012.4
20260509130927 72 18 4.0 6.0 0.00 0.01 0.01 94 1012.4
20260509130827 72 360 4.0 6.0 0.00 0.01 0.01 94 1012.2
20260509130747 72 360 4.0 6.0 0.00 0.01 0.01 94 1012.1
20260509130627 72 360 4.0 8.0 0.00 0.01 0.01 94 1012.1
20260509130533 72 360 3.0 8.0 0.00 0.01 0.01 94 1012.1
20260509130433 72 360 3.0 8.0 0.00 0.01 0.01 94 1012.0
20260509130333 72 347 3.0 8.0 0.00 0.01 0.01 94 1012.0
20260509130233 72 303 3.0 8.0 0.00 0.01 0.01 94 1012.0
20260509130134 72 360 4.0 8.0 0.00 0.01 0.01 94 1012.0
20260509130035 72 360 4.0 8.0 0.00 0.01 0.01 94 1011.9
20260509125934 72 360 4.0 8.0 0.00 0.01 0.01 94 1012.0
20260509125820 72 360 5.0 8.0 0.00 0.01 0.01 94 1012.0
20260509125719 72 360 4.0 8.0 0.00 0.01 0.01 94 1012.0
20260509125620 72 360 4.0 7.0 0.00 0.01 0.01 94 1012.0
20260509125541 72 360 4.0 7.0 0.00 0.01 0.01 94 1012.0
20260509125440 72 360 3.0 5.0 0.00 0.01 0.01 94 1011.9
20260509125319 72 360 3.0 4.0 0.00 0.01 0.01 94 1011.9
20260509125220 72 360 2.0 4.0 0.00 0.01 0.01 94 1011.9
20260509125125 72 360 1.0 3.0 0.00 0.01 0.01 94 1011.9
20260509125025 72 360 1.0 3.0 0.00 0.01 0.01 94 1011.9
20260509124925 72 360 0.0 2.0 0.00 0.01 0.01 94 1011.8
20260509124825 72 360 0.0 2.0 0.00 0.01 0.01 94 1011.8
20260509124726 72 360 0.0 2.0 0.00 0.01 0.01 94 1011.8
20260509124627 72 360 0.0 2.0 0.00 0.01 0.01 94 1011.8
20260509124548 72 360 0.0 2.0 0.00 0.01 0.01 94 1011.8
20260509124431 72 360 1.0 2.0 0.00 0.01 0.01 94 1011.8
20260509124351 72 360 1.0 2.0 0.00 0.01 0.01 94 1011.8
20260509124231 72 360 1.0 2.0 0.00 0.01 0.01 94 1011.8
20260509124132 72 360 0.0 2.0 0.00 0.01 0.01 94 1011.9
20260509124032 72 360 0.0 2.0 0.00 0.01 0.01 94 1011.8
20260509123933 72 360 1.0 2.0 0.00 0.01 0.01 94 1011.9
20260509123834 72 360 1.0 2.0 0.00 0.01 0.01 94 1011.9
20260509123718 72 360 1.0 2.0 0.00 0.01 0.01 94 1011.9
20260509123619 72 360 1.0 2.0 0.00 0.01 0.01 94 1011.8
20260509123540 72 360 1.0 2.0 0.00 0.01 0.01 94 1011.8
20260509123419 72 360 1.0 2.0 0.00 0.01 0.01 94 1011.8
20260509123320 72 360 1.0 2.0 0.00 0.01 0.01 94 1011.8
20260509123221 72 360 1.0 4.0 0.00 0.01 0.01 94 1011.7
20260509123123 72 360 0.0 4.0 0.00 0.01 0.01 94 1011.8
20260509123027 72 360 0.0 4.0 0.00 0.01 0.01 94 1011.8
20260509122928 72 360 1.0 4.0 0.00 0.01 0.01 94 1011.8
20260509122828 72 360 1.0 4.0 0.00 0.01 0.01 94 1011.8
20260509122729 72 360 1.0 4.0 0.00 0.01 0.01 94 1011.8
20260509122629 72 360 2.0 4.0 0.00 0.01 0.01 94 1011.7
20260509122549 72 360 2.0 4.0 0.00 0.01 0.01 94 1011.7
20260509122428 72 360 2.0 4.0 0.00 0.01 0.01 94 1011.7
20260509122333 72 360 2.0 4.0 0.00 0.01 0.01 94 1011.6
20260509122234 72 360 2.0 4.0 0.00 0.01 0.01 94 1011.6
20260509122134 72 360 1.0 4.0 0.00 0.01 0.01 94 1011.6
20260509122055 72 360 1.0 4.0 0.00 0.01 0.01 94 1011.7
20260509121934 72 360 1.0 3.0 0.00 0.01 0.01 94 1011.7
20260509121835 72 360 1.0 3.0 0.00 0.01 0.01 94 1011.8
20260509121719 72 360 1.0 3.0 0.00 0.01 0.01 94 1011.9
20260509121640 72 360 1.0 3.0 0.00 0.01 0.01 94 1011.9
20260509121519 72 360 0.0 2.0 0.00 0.01 0.01 94 1012.0
20260509121419 72 360 0.0 0.0 0.00 0.01 0.01 94 1012.0
20260509121320 72 360 0.0 2.0 0.00 0.01 0.01 94 1011.9
20260509121221 72 360 0.0 2.0 0.00 0.01 0.01 94 1011.9
20260509121121 72 360 0.0 2.0 0.00 0.01 0.01 94 1012.0
20260509121025 72 360 0.0 2.0 0.00 0.01 0.01 94 1012.0
20260509120926 72 360 0.0 2.0 0.00 0.01 0.01 94 1012.0
20260509120827 72 360 0.0 2.0 0.00 0.01 0.01 94 1011.9
20260509120728 72 360 0.0 2.0 0.00 0.01 0.01 94 1011.9
20260509120648 72 360 0.0 2.0 0.00 0.01 0.01 94 1011.9
20260509120528 72 360 0.0 2.0 0.00 0.01 0.01 94 1011.9
20260509120427 72 360 1.0 2.0 0.00 0.01 0.01 94 1011.8
20260509120347 72 360 1.0 2.0 0.00 0.01 0.01 94 1011.8
20260509120251 72 360 1.0 2.0 0.00 0.01 0.01 94 1011.8
20260509120131 72 360 1.0 2.0 0.00 0.01 0.01 94 1011.7
20260509120028 72 360 0.0 2.0 0.00 0.01 0.01 94 1011.9
20260509115929 72 360 0.0 3.0 0.00 0.01 0.01 94 1011.8
20260509115850 72 360 0.0 3.0 0.00 0.01 0.01 94 1011.8
20260509115730 72 360 0.0 3.0 0.00 0.01 0.01 94 1011.9
20260509115630 72 360 0.0 3.0 0.00 0.01 0.01 94 1011.8
20260509115535 72 360 1.0 3.0 0.00 0.01 0.01 94 1011.9
20260509115455 72 360 1.0 3.0 0.00 0.01 0.01 94 1011.9
20260509115334 72 360 1.0 3.0 0.00 0.01 0.01 94 1011.8
20260509115235 72 360 1.0 3.0 0.00 0.01 0.01 94 1011.9
20260509115155 72 360 2.0 3.0 0.00 0.01 0.01 94 1011.9
20260509115035 72 360 2.0 3.0 0.00 0.01 0.01 94 1011.9
20260509114955 72 360 2.0 6.0 0.00 0.01 0.01 94 1011.8
20260509114835 72 316 1.0 6.0 0.00 0.01 0.01 94 1011.8
20260509114719 72 360 1.0 6.0 0.00 0.01 0.01 94 1011.9
20260509114619 72 360 1.0 6.0 0.00 0.01 0.01 94 1011.8
20260509114520 72 315 1.0 8.0 0.00 0.01 0.01 94 1011.9
20260509114421 72 360 1.0 9.0 0.00 0.01 0.01 94 1011.9
20260509114322 72 360 2.0 9.0 0.00 0.01 0.01 94 1011.9
20260509114243 72 360 2.0 9.0 0.00 0.01 0.01 94 1011.9
20260509114116 72 360 3.0 9.0 0.00 0.01 0.01 94 1012.0
20260509114020 72 360 4.0 9.0 0.00 0.01 0.01 94 1012.0
20260509113920 72 360 5.0 9.0 0.00 0.01 0.01 94 1012.2
20260509113821 72 360 5.0 9.0 0.00 0.01 0.01 94 1012.2
20260509113723 72 360 5.0 9.0 0.00 0.01 0.01 94 1012.2
20260509113624 72 360 5.0 9.0 0.00 0.01 0.01 94 1012.3
20260509113545 72 360 4.0 8.0 0.00 0.01 0.01 94 1012.3
20260509113424 72 360 3.0 6.0 0.00 0.01 0.01 94 1012.4
20260509113348 72 360 3.0 6.0 0.00 0.01 0.01 94 1012.4
20260509113228 72 360 3.0 5.0 0.00 0.01 0.01 93 1012.4
20260509113147 72 360 3.0 5.0 0.00 0.01 0.01 94 1012.4
20260509113027 72 360 3.0 4.0 0.00 0.01 0.01 93 1012.5
20260509112928 72 360 3.0 4.0 0.00 0.01 0.01 93 1012.6
20260509112828 72 360 3.0 4.0 0.00 0.01 0.01 94 1012.5
20260509112729 72 360 3.0 4.0 0.00 0.01 0.01 94 1012.5
20260509112646 72 360 2.0 4.0 0.00 0.01 0.01 93 1012.6
20260509112526 72 360 2.0 4.0 0.00 0.01 0.01 93 1012.6
20260509112430 72 360 1.0 3.0 0.00 0.01 0.01 93 1012.6
20260509112331 72 360 1.0 3.0 0.00 0.01 0.01 93 1012.6
20260509112252 72 360 0.0 3.0 0.00 0.01 0.01 93 1012.6
20260509112130 72 315 0.0 3.0 0.00 0.01 0.01 93 1012.6
20260509112031 72 315 0.0 3.0 0.00 0.01 0.01 93 1012.5
20260509111951 72 360 0.0 3.0 0.00 0.01 0.01 93 1012.6
20260509111830 72 360 0.0 3.0 0.00 0.01 0.01 93 1012.5
20260509111730 72 360 1.0 3.0 0.00 0.01 0.01 93 1012.6
20260509111634 72 360 1.0 3.0 0.00 0.01 0.01 93 1012.5
20260509111535 72 360 1.0 5.0 0.00 0.01 0.01 93 1012.5
20260509111435 72 360 1.0 5.0 0.00 0.01 0.01 93 1012.5
20260509111336 72 360 1.0 5.0 0.00 0.01 0.01 93 1012.5
20260509111218 72 360 1.0 5.0 0.00 0.01 0.01 93 1012.6
20260509111119 72 360 2.0 5.0 0.00 0.01 0.01 93 1012.7
20260509111023 72 360 2.0 5.0 0.00 0.01 0.01 93 1012.6
20260509110924 72 360 2.0 6.0 0.00 0.01 0.01 93 1012.7
20260509110824 72 360 2.0 6.0 0.00 0.01 0.01 93 1012.7
20260509110745 72 360 2.0 6.0 0.00 0.01 0.01 93 1012.7
20260509110625 72 360 1.0 6.0 0.00 0.01 0.01 93 1012.7
20260509110525 72 360 2.0 6.0 0.00 0.01 0.01 93 1012.6
20260509110446 72 360 2.0 6.0 0.00 0.01 0.01 93 1012.7
20260509110330 72 360 2.0 6.0 0.00 0.01 0.01 93 1012.7
20260509110230 72 360 2.0 6.0 0.00 0.01 0.01 93 1012.7
20260509110130 72 360 3.0 6.0 0.00 0.01 0.01 93 1012.8
20260509110032 72 360 3.0 6.0 0.00 0.01 0.01 93 1012.8
20260509105931 72 360 3.0 5.0 0.00 0.01 0.01 93 1012.8
20260509105851 72 360 3.0 5.0 0.00 0.01 0.01 93 1012.8
20260509105750 72 360 3.0 5.0 0.00 0.01 0.01 93 1012.8
20260509105629 72 360 3.0 5.0 0.00 0.01 0.01 93 1012.8
20260509105549 72 360 3.0 6.0 0.00 0.01 0.01 93 1012.9
20260509105452 72 360 3.0 6.0 0.00 0.01 0.01 93 1012.9
20260509105352 72 346 3.0 6.0 0.00 0.01 0.01 93 1012.9
20260509105231 72 360 2.0 6.0 0.00 0.01 0.01 93 1012.9
20260509105132 72 360 3.0 6.0 0.00 0.01 0.01 93 1012.8
20260509105032 72 360 3.0 6.0 0.00 0.01 0.01 93 1012.8
20260509104933 72 360 3.0 6.0 0.00 0.01 0.01 93 1012.8
20260509104833 72 360 3.0 6.0 0.00 0.01 0.01 93 1012.8
20260509104718 72 360 3.0 6.0 0.00 0.01 0.01 93 1012.7
20260509104618 72 360 3.0 5.0 0.00 0.01 0.01 93 1012.7
20260509104518 72 360 3.0 5.0 0.00 0.01 0.01 93 1012.8
20260509104419 72 360 3.0 5.0 0.00 0.01 0.01 93 1012.8
20260509104319 72 22 3.0 5.0 0.00 0.01 0.01 93 1012.8
20260509104219 72 360 4.0 5.0 0.00 0.01 0.01 93 1012.9
20260509104123 72 360 3.0 5.0 0.00 0.01 0.01 93 1012.9
20260509104024 72 360 3.0 5.0 0.00 0.01 0.01 93 1012.9
20260509103924 72 11 3.0 5.0 0.00 0.01 0.01 93 1013.0
20260509103846 72 360 3.0 5.0 0.00 0.01 0.01 93 1012.9
20260509103725 72 360 3.0 5.0 0.00 0.01 0.01 93 1012.9
20260509103624 72 360 3.0 5.0 0.00 0.01 0.01 93 1012.9
20260509103524 72 360 4.0 5.0 0.00 0.01 0.01 93 1012.8
20260509103425 72 360 4.0 5.0 0.00 0.01 0.01 93 1012.8
20260509103330 72 360 4.0 5.0 0.00 0.01 0.01 93 1012.8
20260509103249 72 360 3.0 5.0 0.00 0.01 0.01 93 1012.8
20260509103128 72 360 3.0 5.0 0.00 0.01 0.01 93 1012.8
20260509103028 72 360 3.0 5.0 0.00 0.01 0.01 93 1012.8
20260509102929 72 360 3.0 4.0 0.00 0.01 0.01 93 1012.8
20260509102830 72 360 3.0 4.0 0.00 0.01 0.01 93 1012.8
20260509102730 72 360 3.0 5.0 0.00 0.01 0.01 93 1012.8
20260509102650 72 360 3.0 5.0 0.00 0.01 0.01 93 1012.8
20260509102555 72 360 3.0 5.0 0.00 0.01 0.01 93 1012.8
20260509102434 72 360 3.0 5.0 0.00 0.01 0.01 93 1012.7
20260509102334 72 360 3.0 5.0 0.00 0.01 0.01 93 1012.7
20260509102233 72 360 3.0 5.0 0.00 0.01 0.01 93 1012.7
20260509102133 72 360 3.0 5.0 0.00 0.01 0.01 93 1012.7
20260509102054 72 360 3.0 5.0 0.00 0.01 0.01 93 1012.6
20260509101934 72 360 3.0 5.0 0.00 0.01 0.01 93 1012.6
20260509101818 72 360 3.0 4.0 0.00 0.01 0.01 93 1012.6
20260509101719 72 360 3.0 4.0 0.00 0.01 0.01 93 1012.5
20260509101619 72 360 2.0 4.0 0.00 0.01 0.01 93 1012.5
20260509101520 72 360 2.0 3.0 0.00 0.01 0.01 93 1012.5
20260509101420 72 360 1.0 3.0 0.00 0.01 0.01 93 1012.4
20260509101320 72 360 1.0 3.0 0.00 0.01 0.01 93 1012.5
20260509101220 72 360 0.0 3.0 0.00 0.01 0.01 93 1012.3
20260509101125 72 360 0.0 3.0 0.00 0.01 0.01 93 1012.2
20260509101025 72 360 1.0 3.0 0.00 0.01 0.01 93 1012.3
20260509100926 72 360 1.0 3.0 0.00 0.01 0.01 93 1012.3
20260509100826 72 360 1.0 3.0 0.00 0.01 0.01 93 1012.1
20260509100725 72 360 2.0 3.0 0.00 0.01 0.01 93 1011.9
20260509100626 72 360 2.0 3.0 0.00 0.01 0.01 93 1011.9
20260509100531 72 360 2.0 4.0 0.00 0.01 0.01 93 1011.9
20260509100451 72 360 2.0 4.0 0.00 0.01 0.01 93 1011.8
20260509100331 72 130 2.0 4.0 0.00 0.01 0.01 93 1011.8
20260509100230 72 360 2.0 4.0 0.00 0.01 0.01 92 1011.7
20260509100151 72 360 2.0 4.0 0.00 0.01 0.01 92 1011.7
20260509100028 72 360 2.0 4.0 0.00 0.01 0.01 92 1011.6
20260509095947 72 360 2.0 4.0 0.00 0.01 0.01 92 1011.6
20260509095826 72 360 2.0 4.0 0.00 0.01 0.01 92 1011.6
20260509095729 72 360 2.0 4.0 0.00 0.01 0.01 92 1011.5
20260509095652 72 360 2.0 4.0 0.00 0.01 0.01 93 1011.5
20260509095531 72 360 2.0 4.0 0.00 0.01 0.01 93 1011.5
20260509095432 72 360 2.0 4.0 0.00 0.01 0.01 93 1011.6
20260509095334 72 360 2.0 4.0 0.00 0.01 0.01 93 1011.6
20260509095235 72 360 2.0 4.0 0.00 0.01 0.01 93 1011.5
20260509095136 72 360 2.0 3.0 0.00 0.01 0.01 93 1011.6
20260509095035 72 360 2.0 3.0 0.00 0.01 0.01 93 1011.5
20260509094920 72 360 1.0 3.0 0.00 0.01 0.01 93 1011.6
20260509094820 72 87 1.0 3.0 0.00 0.01 0.01 93 1011.5
20260509094720 72 360 1.0 3.0 0.00 0.01 0.01 93 1011.5
20260509094619 72 360 1.0 3.0 0.00 0.01 0.01 93 1011.4
20260509094519 72 360 1.0 3.0 0.00 0.01 0.01 92 1011.5
20260509094418 72 360 1.0 3.0 0.00 0.01 0.01 92 1011.5
20260509094317 72 360 1.0 3.0 0.00 0.01 0.01 92 1011.5
20260509094222 72 86 1.0 2.0 0.00 0.01 0.01 92 1011.5
20260509094123 72 86 1.0 2.0 0.01 0.01 0.01 92 1011.6
20260509094043 72 360 1.0 2.0 0.01 0.01 0.01 92 1011.6
20260509093922 72 360 1.0 2.0 0.01 0.01 0.01 92 1011.6
20260509093822 72 360 1.0 2.0 0.01 0.01 0.01 92 1011.6
20260509093722 72 360 1.0 2.0 0.01 0.01 0.01 92 1011.6
20260509093622 72 360 1.0 2.0 0.01 0.01 0.01 92 1011.6
20260509093527 72 360 1.0 2.0 0.01 0.01 0.01 92 1011.6
20260509093427 72 360 1.0 2.0 0.01 0.01 0.01 92 1011.6
20260509093327 72 360 1.0 2.0 0.01 0.01 0.01 92 1011.4
20260509093227 72 360 0.0 1.0 0.01 0.01 0.01 92 1011.5
20260509093128 72 360 0.0 1.0 0.01 0.01 0.01 92 1011.4
20260509093029 72 360 0.0 1.0 0.01 0.01 0.01 92 1011.5
20260509092929 72 360 0.0 1.0 0.01 0.01 0.01 92 1011.6
20260509092854 72 360 0.0 1.0 0.01 0.01 0.01 92 1011.5
20260509092734 72 360 0.0 1.0 0.01 0.01 0.01 92 1011.5
20260509092635 72 360 0.0 1.0 0.01 0.01 0.01 92 1011.5
20260509092516 72 360 0.0 1.0 0.01 0.01 0.01 92 1011.4
20260509092417 72 360 0.0 1.0 0.01 0.01 0.01 92 1011.5
20260509092318 72 360 0.0 1.0 0.01 0.01 0.01 92 1011.4
20260509092222 72 360 0.0 1.0 0.01 0.01 0.01 92 1011.5
20260509092123 72 360 0.0 1.0 0.01 0.01 0.01 92 1011.5
20260509092024 72 360 0.0 1.0 0.01 0.01 0.01 92 1011.5
20260509091925 72 360 0.0 2.0 0.01 0.01 0.01 92 1011.6
20260509091825 72 360 0.0 2.0 0.01 0.01 0.01 92 1011.4
20260509091725 72 360 0.0 2.0 0.01 0.01 0.01 92 1011.4
20260509091625 72 360 0.0 2.0 0.01 0.01 0.01 92 1011.5
20260509091530 72 360 1.0 2.0 0.01 0.01 0.01 92 1011.5
20260509091430 72 360 1.0 2.0 0.01 0.01 0.01 92 1011.3
20260509091330 72 360 1.0 2.0 0.01 0.01 0.01 92 1011.4
20260509091231 72 360 1.0 2.0 0.01 0.01 0.01 92 1011.4
20260509091132 72 360 1.0 3.0 0.01 0.01 0.01 92 1011.4
20260509091034 72 360 1.0 3.0 0.01 0.01 0.01 92 1011.4
20260509090937 72 360 1.0 3.0 0.01 0.01 0.01 92 1011.4
20260509090818 72 360 1.0 3.0 0.01 0.01 0.01 92 1011.3
20260509090718 72 360 1.0 3.0 0.01 0.01 0.01 92 1011.4
20260509090618 72 360 1.0 3.0 0.01 0.01 0.01 92 1011.4
20260509090519 72 360 1.0 3.0 0.01 0.01 0.01 92 1011.4
20260509090420 72 80 1.0 3.0 0.01 0.01 0.01 92 1011.4
20260509090320 72 80 1.0 3.0 0.01 0.01 0.01 92 1011.4
20260509090224 72 81 1.0 3.0 0.01 0.01 0.01 92 1011.4
20260509090126 72 360 1.0 3.0 0.01 0.01 0.01 92 1011.4
20260509090025 72 77 0.0 2.0 0.01 0.01 0.01 92 1011.4
20260509085926 72 360 0.0 2.0 0.01 0.01 0.01 92 1011.4
20260509085847 72 360 0.0 1.0 0.01 0.01 0.01 92 1011.4
20260509085725 72 360 0.0 1.0 0.01 0.01 0.01 92 1011.5
20260509085625 72 360 1.0 1.0 0.01 0.01 0.01 92 1011.5
20260509085530 72 360 1.0 1.0 0.01 0.01 0.01 92 1011.5
20260509085431 72 360 1.0 1.0 0.01 0.01 0.01 92 1011.4
20260509085332 72 360 0.0 1.0 0.01 0.01 0.01 92 1011.4
20260509085231 72 360 0.0 1.0 0.01 0.01 0.01 92 1011.4
20260509085132 72 360 0.0 2.0 0.01 0.01 0.01 92 1011.4
20260509085033 72 360 0.0 2.0 0.01 0.01 0.01 92 1011.4
20260509084938 72 360 0.0 3.0 0.01 0.01 0.01 92 1011.4
20260509084838 72 360 0.0 3.0 0.01 0.01 0.01 92 1011.6
20260509084717 72 360 0.0 3.0 0.01 0.01 0.01 92 1011.5
20260509084617 72 360 1.0 3.0 0.01 0.01 0.01 92 1011.5
20260509084518 72 360 1.0 3.0 0.01 0.01 0.01 92 1011.5
20260509084419 72 360 1.0 4.0 0.01 0.01 0.01 92 1011.5
20260509084319 72 360 1.0 4.0 0.01 0.01 0.01 92 1011.4
20260509084225 72 360 2.0 4.0 0.01 0.01 0.01 92 1011.5
20260509084125 72 360 2.0 4.0 0.00 0.00 0.00 92 1011.6
20260509084026 72 77 2.0 4.0 0.00 0.00 0.00 92 1011.6
20260509083946 72 360 2.0 4.0 0.00 0.00 0.00 92 1011.5
20260509083826 72 360 2.0 4.0 0.00 0.00 0.00 92 1011.5
20260509083727 72 360 2.0 4.0 0.00 0.00 0.00 92 1011.6
20260509083647 72 74 2.0 4.0 0.00 0.00 0.00 92 1011.5
20260509083527 72 74 2.0 3.0 0.00 0.00 0.00 92 1011.5
20260509083431 72 360 2.0 3.0 0.00 0.00 0.00 92 1011.6
20260509083332 72 360 1.0 3.0 0.00 0.00 0.00 92 1011.7
20260509083233 72 68 1.0 3.0 0.00 0.00 0.00 92 1011.8
20260509083134 72 360 1.0 3.0 0.00 0.00 0.00 92 1011.8
20260509083033 72 360 1.0 3.0 0.00 0.00 0.00 92 1011.8
20260509082954 72 360 1.0 0.0 0.00 0.00 0.00 92 1011.8
20260509082853 72 29 1.0 0.0 0.00 0.00 0.00 91 1011.8
20260509082815 72 360 1.0 3.0 0.00 0.00 0.00 91 1011.8
20260509082241 72 30 1.0 3.0 0.00 0.00 0.00 91 1011.8
20260509082133 72 30 1.0 3.0 0.00 0.00 0.00 91 1011.8
20260509082034 72 30 1.0 3.0 0.00 0.00 0.00 91 1011.8
20260509081933 72 30 1.0 3.0 0.00 0.00 0.00 91 1011.8
20260509081854 72 360 1.0 3.0 0.00 0.00 0.00 91 1011.8
20260509081734 72 26 1.0 4.0 0.00 0.00 0.00 91 1011.8
20260509081618 72 360 1.0 4.0 0.00 0.00 0.00 91 1011.8
20260509081518 72 360 1.0 4.0 0.00 0.00 0.00 91 1011.9
20260509081439 72 30 1.0 4.0 0.00 0.00 0.00 91 1012.0
20260509081318 72 360 1.0 4.0 0.00 0.00 0.00 91 1012.1
20260509081238 72 360 1.0 4.0 0.00 0.00 0.00 91 1012.0
20260509081138 72 360 1.0 4.0 0.00 0.00 0.00 91 1012.0
20260509081017 72 360 1.0 4.0 0.00 0.00 0.00 91 1011.9
20260509080938 72 360 2.0 4.0 0.00 0.00 0.00 91 1011.9
20260509080837 72 360 2.0 4.0 0.00 0.00 0.00 91 1011.9
20260509080720 72 30 2.0 4.0 0.00 0.00 0.00 91 1011.9
20260509080621 72 27 2.0 4.0 0.00 0.00 0.00 91 1011.8
20260509080522 72 29 2.0 4.0 0.00 0.00 0.00 91 1011.8
20260509080442 72 360 2.0 4.0 0.00 0.00 0.00 91 1011.8
20260509080322 72 360 2.0 4.0 0.00 0.00 0.00 91 1011.7
20260509080224 72 360 2.0 4.0 0.00 0.00 0.00 91 1011.6
20260509080145 72 360 2.0 4.0 0.00 0.00 0.00 91 1011.6
20260509080027 72 360 2.0 4.0 0.00 0.00 0.00 91 1011.6
20260509075928 72 360 2.0 4.0 0.00 0.00 0.00 91 1011.7
20260509075848 72 360 2.0 4.0 0.00 0.00 0.00 91 1011.6
20260509075729 72 360 2.0 4.0 0.00 0.00 0.00 91 1011.6
20260509075629 72 360 1.0 4.0 0.00 0.00 0.00 91 1011.5
20260509075528 72 360 1.0 4.0 0.00 0.00 0.00 91 1011.6
20260509075429 72 360 1.0 3.0 0.00 0.00 0.00 91 1011.6
20260509075351 72 360 1.0 3.0 0.00 0.00 0.00 91 1011.6
20260509075235 72 360 1.0 3.0 0.00 0.00 0.00 91 1011.6
20260509075135 72 360 1.0 3.0 0.00 0.00 0.00 91 1011.7
20260509075035 72 360 1.0 3.0 0.00 0.00 0.00 91 1011.6
20260509074935 72 360 1.0 3.0 0.00 0.00 0.00 91 1011.7
20260509074855 72 360 1.0 3.0 0.00 0.00 0.00 91 1011.6
20260509074733 72 360 1.0 3.0 0.00 0.00 0.00 91 1011.6
20260509074633 73 360 1.0 3.0 0.00 0.00 0.00 91 1011.6
20260509074518 73 360 1.0 3.0 0.00 0.00 0.00 91 1011.6
20260509074419 73 360 1.0 3.0 0.00 0.00 0.00 91 1011.5
20260509074320 73 360 1.0 3.0 0.00 0.00 0.00 91 1011.5
20260509074221 72 360 1.0 3.0 0.00 0.00 0.00 91 1011.6
20260509074123 72 360 1.0 3.0 0.00 0.00 0.00 91 1011.7
20260509074023 72 360 1.0 3.0 0.00 0.00 0.00 91 1011.6
20260509073927 72 360 1.0 3.0 0.00 0.00 0.00 91 1011.6
20260509073828 72 360 1.0 3.0 0.00 0.00 0.00 91 1011.6
20260509073730 72 360 1.0 3.0 0.00 0.00 0.00 91 1011.7
20260509073632 72 360 1.0 3.0 0.00 0.00 0.00 91 1011.6
20260509073533 72 360 1.0 3.0 0.00 0.00 0.00 91 1011.6
20260509073434 72 360 1.0 3.0 0.00 0.00 0.00 91 1011.6
20260509073334 72 360 1.0 3.0 0.00 0.00 0.00 91 1011.6
20260509073219 72 360 1.0 3.0 0.00 0.00 0.00 91 1011.4
20260509073119 72 360 1.0 3.0 0.00 0.00 0.00 91 1011.5
20260509073040 72 360 1.0 3.0 0.00 0.00 0.00 91 1011.5
20260509072920 72 360 1.0 3.0 0.00 0.00 0.00 91 1011.6
20260509072822 72 360 2.0 3.0 0.00 0.00 0.00 91 1011.6
20260509072743 72 360 2.0 4.0 0.00 0.00 0.00 91 1011.7
20260509072623 72 360 2.0 4.0 0.00 0.00 0.00 91 1011.7
20260509072527 72 360 2.0 4.0 0.00 0.00 0.00 91 1011.7
20260509072448 72 360 2.0 4.0 0.00 0.00 0.00 91 1011.7
20260509072328 72 360 3.0 4.0 0.00 0.00 0.00 91 1011.7
20260509072249 72 360 3.0 5.0 0.00 0.00 0.00 91 1011.8
20260509072130 72 360 3.0 5.0 0.00 0.00 0.00 91 1011.7
20260509072030 72 360 3.0 5.0 0.00 0.00 0.00 91 1011.8
20260509071931 72 360 3.0 5.0 0.00 0.00 0.00 91 1011.7
20260509071833 72 360 3.0 5.0 0.00 0.00 0.00 91 1011.8
20260509071757 72 360 3.0 5.0 0.00 0.00 0.00 91 1011.7
20260509071656 72 360 3.0 5.0 0.00 0.00 0.00 90 1011.8
20260509071516 72 360 3.0 5.0 0.00 0.00 0.00 90 1011.7
20260509071418 72 360 3.0 5.0 0.00 0.00 0.00 90 1011.8
20260509071318 72 360 3.0 5.0 0.00 0.00 0.00 90 1011.7
20260509071219 72 360 3.0 5.0 0.00 0.00 0.00 90 1011.7
20260509071119 72 360 3.0 5.0 0.00 0.00 0.00 90 1011.8
20260509071040 72 360 3.0 5.0 0.00 0.00 0.00 90 1011.8
20260509070922 72 360 3.0 6.0 0.00 0.00 0.00 90 1011.8
20260509070843 72 360 3.0 6.0 0.00 0.00 0.00 90 1011.7
20260509070722 72 360 3.0 6.0 0.00 0.00 0.00 90 1011.8
20260509070622 72 360 3.0 6.0 0.00 0.00 0.00 90 1011.8
20260509070543 72 360 3.0 6.0 0.00 0.00 0.00 90 1011.8
20260509070424 72 360 3.0 6.0 0.00 0.00 0.00 90 1011.8
20260509070325 72 360 3.0 6.0 0.00 0.00 0.00 90 1011.8
20260509070226 72 360 3.0 6.0 0.00 0.00 0.00 90 1011.8
20260509070131 73 360 3.0 8.0 0.00 0.00 0.00 90 1011.9
20260509070029 72 360 3.0 10.0 0.00 0.00 0.00 90 1011.8
20260509065929 73 360 3.0 10.0 0.00 0.00 0.00 90 1011.7
20260509065827 72 360 3.0 10.0 0.00 0.00 0.00 90 1011.8
20260509065729 72 360 3.0 10.0 0.00 0.00 0.00 90 1011.8
20260509065629 72 360 3.0 10.0 0.00 0.00 0.00 90 1011.8
20260509065550 72 360 3.0 10.0 0.00 0.00 0.00 90 1011.9
20260509065430 73 360 4.0 10.0 0.00 0.00 0.00 90 1011.9
20260509065316 73 360 5.0 10.0 0.00 0.00 0.00 90 1011.8
20260509065216 73 360 5.0 10.0 0.00 0.00 0.00 90 1011.9
20260509065138 73 360 4.0 10.0 0.00 0.00 0.00 90 1011.9
20260509065018 73 360 4.0 9.0 0.00 0.00 0.00 90 1011.9
20260509064917 73 360 4.0 9.0 0.00 0.00 0.00 90 1011.9
20260509064818 73 360 4.0 9.0 0.00 0.00 0.00 90 1011.9
20260509064719 73 360 4.0 9.0 0.00 0.00 0.00 90 1011.9
20260509064624 73 360 4.0 9.0 0.00 0.00 0.00 90 1011.8
20260509064524 73 360 4.0 8.0 0.00 0.00 0.00 90 1011.9
20260509064423 73 360 4.0 8.0 0.00 0.00 0.00 90 1011.8
20260509064344 73 360 4.0 8.0 0.00 0.00 0.00 90 1011.7
20260509064243 73 360 4.0 8.0 0.00 0.00 0.00 90 1011.7
20260509064142 73 360 4.0 8.0 0.00 0.00 0.00 90 1011.7
20260509064016 73 360 4.0 8.0 0.00 0.00 0.00 90 1011.6
20260509063917 73 360 4.0 9.0 0.00 0.00 0.00 90 1011.6
20260509063816 73 360 3.0 9.0 0.00 0.00 0.00 90 1011.6
20260509063721 73 360 4.0 9.0 0.00 0.00 0.00 90 1011.5
20260509063620 73 360 4.0 9.0 0.00 0.00 0.00 90 1011.4
20260509063521 73 360 4.0 10.0 0.00 0.00 0.00 90 1011.4
20260509063442 73 360 4.0 10.0 0.00 0.00 0.00 90 1011.4
20260509063321 73 360 5.0 10.0 0.00 0.00 0.00 90 1011.5
20260509063241 73 360 5.0 13.0 0.00 0.00 0.00 90 1011.5
20260509063122 73 360 6.0 13.0 0.00 0.00 0.00 90 1011.5
20260509063022 73 360 6.0 13.0 0.00 0.00 0.00 90 1011.5
20260509062927 73 360 6.0 13.0 0.00 0.00 0.00 90 1011.5
20260509062828 73 360 7.0 13.0 0.00 0.00 0.00 90 1011.5
20260509062749 73 360 7.0 13.0 0.00 0.00 0.00 90 1011.4
20260509062626 73 360 7.0 13.0 0.00 0.00 0.00 90 1011.5
20260509062526 73 360 7.0 13.0 0.00 0.00 0.00 90 1011.4
20260509062426 73 360 7.0 12.0 0.00 0.00 0.00 89 1011.5
20260509062327 73 360 7.0 12.0 0.00 0.00 0.00 89 1011.5
20260509062230 73 360 6.0 12.0 0.00 0.00 0.00 89 1011.5
20260509062131 73 360 6.0 12.0 0.00 0.00 0.00 89 1011.5
20260509062033 73 360 5.0 10.0 0.00 0.00 0.00 89 1011.6
20260509061933 73 360 6.0 10.0 0.00 0.00 0.00 89 1011.5
20260509061833 73 360 5.0 12.0 0.00 0.00 0.00 89 1011.6
20260509061733 73 360 5.0 12.0 0.00 0.00 0.00 89 1011.6
20260509061618 73 360 5.0 13.0 0.00 0.00 0.00 89 1011.5
20260509061518 73 360 5.0 13.0 0.00 0.00 0.00 89 1011.6
20260509061419 73 360 5.0 13.0 0.00 0.00 0.00 89 1011.6
20260509061319 73 360 5.0 13.0 0.00 0.00 0.00 89 1011.4
20260509061220 73 360 5.0 13.0 0.00 0.00 0.00 89 1011.4
20260509061120 73 360 5.0 13.0 0.00 0.00 0.00 89 1011.3
20260509061020 73 360 5.0 13.0 0.00 0.00 0.00 89 1011.3
20260509060925 73 360 5.0 13.0 0.00 0.00 0.00 89 1011.3
20260509060826 73 360 6.0 13.0 0.00 0.00 0.00 89 1011.3
20260509060727 73 360 6.0 13.0 0.00 0.00 0.00 89 1011.4
20260509060627 73 360 6.0 13.0 0.00 0.00 0.00 89 1011.4
20260509060527 73 360 6.0 13.0 0.00 0.00 0.00 89 1011.3
20260509060428 73 360 7.0 15.0 0.00 0.00 0.00 89 1011.4
20260509060332 73 360 6.0 15.0 0.00 0.00 0.00 89 1011.4
20260509060233 73 360 6.0 15.0 0.00 0.00 0.00 89 1011.4
20260509060134 73 360 5.0 15.0 0.00 0.00 0.00 89 1011.4
20260509060054 73 360 6.0 15.0 0.00 0.00 0.00 89 1011.4
20260509055934 73 360 6.0 15.0 0.00 0.00 0.00 89 1011.4
20260509055834 73 360 7.0 15.0 0.00 0.00 0.00 89 1011.4
20260509055735 73 360 7.0 15.0 0.00 0.00 0.00 89 1011.4
20260509055619 73 360 8.0 15.0 0.00 0.00 0.00 89 1011.4
20260509055519 73 360 9.0 15.0 0.00 0.00 0.00 89 1011.4
20260509055420 73 360 9.0 15.0 0.00 0.00 0.00 89 1011.3
20260509055321 73 360 9.0 15.0 0.00 0.00 0.00 89 1011.3
20260509055220 73 360 9.0 18.0 0.00 0.00 0.00 89 1011.4
20260509055141 73 360 8.0 18.0 0.00 0.00 0.00 89 1011.4
20260509055041 73 360 8.0 18.0 0.00 0.00 0.00 89 1011.3
20260509054924 73 360 7.0 18.0 0.00 0.00 0.00 88 1011.3
20260509054825 73 360 7.0 18.0 0.00 0.00 0.00 88 1011.2
20260509054725 73 360 7.0 18.0 0.00 0.00 0.00 88 1011.3
20260509054624 73 360 7.0 18.0 0.00 0.00 0.00 88 1011.3
20260509054525 73 360 8.0 18.0 0.00 0.00 0.00 88 1011.3
20260509054426 73 360 8.0 18.0 0.00 0.00 0.00 88 1011.3
20260509054346 73 360 7.0 18.0 0.00 0.00 0.00 88 1011.2
20260509054226 73 360 6.0 18.0 0.00 0.00 0.00 88 1011.3
20260509054151 73 360 7.0 18.0 0.00 0.00 0.00 88 1011.3
20260509054050 73 360 6.0 13.0 0.00 0.00 0.00 88 1011.3
20260509053929 73 360 6.0 13.0 0.00 0.00 0.00 88 1011.3
20260509053828 73 360 6.0 13.0 0.00 0.00 0.00 88 1011.2
20260509053729 73 360 6.0 13.0 0.00 0.00 0.00 88 1011.3
20260509053629 73 360 6.0 13.0 0.00 0.00 0.00 88 1011.3
20260509053529 73 360 6.0 13.0 0.00 0.00 0.00 88 1011.3
20260509053449 73 360 5.0 13.0 0.00 0.00 0.00 88 1011.3
20260509053327 73 360 6.0 16.0 0.00 0.00 0.00 88 1011.3
20260509053252 73 360 5.0 16.0 0.00 0.00 0.00 88 1011.3
20260509053131 73 360 6.0 16.0 0.00 0.00 0.00 88 1011.3
20260509053031 73 360 6.0 16.0 0.00 0.00 0.00 88 1011.3
20260509052932 73 360 7.0 16.0 0.00 0.00 0.00 88 1011.3
20260509052833 73 360 7.0 16.0 0.00 0.00 0.00 88 1011.3
20260509052735 73 360 7.0 16.0 0.00 0.00 0.00 88 1011.2
20260509052618 73 360 7.0 16.0 0.00 0.00 0.00 88 1011.3
20260509052518 73 360 7.0 16.0 0.00 0.00 0.00 88 1011.2
20260509052419 73 360 7.0 16.0 0.00 0.00 0.00 88 1011.2
20260509052320 73 360 6.0 16.0 0.00 0.00 0.00 88 1011.2
20260509052220 73 360 6.0 16.0 0.00 0.00 0.00 88 1011.3
20260509052121 73 360 6.0 13.0 0.00 0.00 0.00 88 1011.2
20260509052021 73 360 5.0 13.0 0.00 0.00 0.00 88 1011.3
20260509051926 73 360 5.0 13.0 0.00 0.00 0.00 88 1011.2
20260509051826 73 360 5.0 13.0 0.00 0.00 0.00 88 1011.3
20260509051727 73 360 6.0 13.0 0.00 0.00 0.00 88 1011.3
20260509051627 73 360 6.0 13.0 0.00 0.00 0.00 88 1011.3
20260509051525 73 360 7.0 13.0 0.00 0.00 0.00 88 1011.2
20260509051426 73 360 7.0 13.0 0.00 0.00 0.00 88 1011.2
20260509051326 73 360 7.0 13.0 0.00 0.00 0.00 88 1011.2
20260509051251 73 360 8.0 13.0 0.00 0.00 0.00 88 1011.2
20260509051150 73 360 8.0 13.0 0.00 0.00 0.00 88 1011.0
20260509051030 73 360 8.0 13.0 0.00 0.00 0.00 88 1010.9
20260509050930 73 360 8.0 13.0 0.00 0.00 0.00 88 1010.9
20260509050831 73 360 9.0 14.0 0.00 0.00 0.00 88 1010.9
20260509050731 73 360 9.0 14.0 0.00 0.00 0.00 88 1010.9
20260509050652 73 360 9.0 14.0 0.00 0.00 0.00 88 1010.9
20260509050531 73 360 9.0 14.0 0.00 0.00 0.00 88 1010.8
20260509050435 73 360 9.0 14.0 0.00 0.00 0.00 88 1010.9
20260509050316 73 360 8.0 14.0 0.00 0.00 0.00 88 1010.8
20260509050217 73 360 8.0 14.0 0.00 0.00 0.00 88 1011.0
20260509050117 73 360 7.0 14.0 0.00 0.00 0.00 88 1010.9
20260509050038 73 360 7.0 14.0 0.00 0.00 0.00 88 1010.9
20260509045952 73 360 6.0 12.0 0.00 0.00 0.00 88 1011.0
20260509045831 73 360 6.0 12.0 0.00 0.00 0.00 88 1010.9
20260509045736 73 360 6.0 12.0 0.00 0.00 0.00 88 1010.9
20260509045635 73 360 6.0 12.0 0.00 0.00 0.00 88 1011.0
20260509045555 73 360 6.0 12.0 0.00 0.00 0.00 88 1011.0
20260509045455 73 360 6.0 12.0 0.00 0.00 0.00 88 1011.0
20260509045334 73 360 7.0 12.0 0.00 0.00 0.00 88 1011.0
20260509045234 73 360 7.0 12.0 0.00 0.00 0.00 88 1011.0
20260509045134 73 360 8.0 13.0 0.00 0.00 0.00 88 1011.0
20260509045056 73 360 8.0 13.0 0.00 0.00 0.00 88 1011.0
20260509044918 73 360 8.0 13.0 0.00 0.00 0.00 88 1010.8
20260509044819 73 360 9.0 13.0 0.00 0.00 0.00 88 1010.9
20260509044718 73 360 8.0 13.0 0.00 0.00 0.00 88 1010.8
20260509044619 73 360 8.0 13.0 0.00 0.00 0.00 88 1010.9
20260509044519 73 360 8.0 13.0 0.00 0.00 0.00 88 1010.8
20260509044438 73 360 7.0 13.0 0.00 0.00 0.00 88 1010.9
20260509044338 73 360 7.0 13.0 0.00 0.00 0.00 88 1010.9
20260509044217 73 360 7.0 12.0 0.00 0.00 0.00 88 1010.8
20260509044122 73 360 7.0 12.0 0.00 0.00 0.00 88 1010.8
20260509044022 73 360 7.0 12.0 0.00 0.00 0.00 88 1010.9
20260509043921 73 360 7.0 14.0 0.00 0.00 0.00 88 1010.9
20260509043822 73 360 7.0 14.0 0.00 0.00 0.00 88 1011.0
20260509043743 73 360 7.0 14.0 0.00 0.00 0.00 88 1011.0
20260509043623 73 360 7.0 14.0 0.00 0.00 0.00 88 1011.0
20260509043523 73 360 8.0 14.0 0.00 0.00 0.00 88 1011.0
20260509043423 73 360 8.0 14.0 0.00 0.00 0.00 88 1011.0
20260509043349 73 360 8.0 14.0 0.00 0.00 0.00 88 1011.0
20260509043228 73 360 8.0 14.0 0.00 0.00 0.00 88 1011.0
20260509043129 73 360 8.0 14.0 0.00 0.00 0.00 88 1010.9
20260509043029 73 360 8.0 14.0 0.00 0.00 0.00 88 1010.9
20260509042930 73 360 8.0 14.0 0.00 0.00 0.00 88 1010.9
20260509042831 73 360 8.0 14.0 0.00 0.00 0.00 88 1010.9
20260509042732 73 360 8.0 14.0 0.00 0.00 0.00 88 1010.9
20260509042616 73 360 8.0 14.0 0.00 0.00 0.00 88 1010.9
20260509042517 73 360 7.0 14.0 0.00 0.00 0.00 88 1011.0
20260509042417 73 360 7.0 14.0 0.00 0.00 0.00 88 1011.0
20260509042317 73 360 7.0 14.0 0.00 0.00 0.00 87 1011.0
20260509042218 73 360 7.0 14.0 0.00 0.00 0.00 87 1011.1
20260509042119 73 360 7.0 11.0 0.00 0.00 0.00 87 1011.1
20260509042022 73 360 7.0 11.0 0.00 0.00 0.00 87 1011.1
20260509041923 73 360 7.0 11.0 0.00 0.00 0.00 88 1011.1
20260509041823 73 360 7.0 11.0 0.00 0.00 0.00 88 1011.1
20260509041723 73 360 7.0 11.0 0.00 0.00 0.00 88 1011.2
20260509041623 73 360 6.0 11.0 0.00 0.00 0.00 87 1011.1
20260509041523 73 360 7.0 11.0 0.00 0.00 0.00 87 1011.1
20260509041422 73 360 6.0 11.0 0.00 0.00 0.00 87 1011.1
20260509041323 73 360 6.0 11.0 0.00 0.00 0.00 87 1011.1
20260509041248 73 360 6.0 11.0 0.00 0.00 0.00 87 1011.1
20260509041146 73 360 6.0 11.0 0.00 0.00 0.00 87 1011.1
20260509041026 73 360 6.0 11.0 0.00 0.00 0.00 87 1011.2
20260509040928 73 360 6.0 11.0 0.00 0.00 0.00 87 1011.2
20260509040828 73 360 6.0 11.0 0.00 0.00 0.00 87 1011.2
20260509040729 73 360 5.0 10.0 0.00 0.00 0.00 87 1011.2
20260509040627 73 360 5.0 10.0 0.00 0.00 0.00 87 1011.2
20260509040547 73 360 5.0 10.0 0.00 0.00 0.00 87 1011.2
20260509040431 73 360 5.0 10.0 0.00 0.00 0.00 87 1011.2
20260509040331 73 360 5.0 9.0 0.00 0.00 0.00 87 1011.3
20260509040231 73 360 4.0 8.0 0.00 0.00 0.00 87 1011.3
20260509040132 73 360 4.0 8.0 0.00 0.00 0.00 87 1011.3
20260509040033 73 360 5.0 8.0 0.00 0.00 0.00 87 1011.3
20260509035934 73 360 4.0 8.0 0.00 0.00 0.00 87 1011.3
20260509035819 73 360 4.0 8.0 0.00 0.00 0.00 87 1011.3
20260509035719 73 360 4.0 8.0 0.00 0.00 0.00 87 1011.4
20260509035618 73 360 4.0 8.0 0.00 0.00 0.00 87 1011.4
20260509035519 73 360 4.0 8.0 0.00 0.00 0.00 87 1011.3
20260509035419 73 360 4.0 8.0 0.00 0.00 0.00 87 1011.4
20260509035320 73 360 3.0 6.0 0.00 0.00 0.00 86 1011.4
20260509035241 73 360 3.0 6.0 0.00 0.00 0.00 86 1011.4
20260509035120 73 360 3.0 5.0 0.00 0.00 0.00 86 1011.4
20260509035025 73 360 3.0 6.0 0.00 0.00 0.00 86 1011.3
20260509034925 73 360 3.0 6.0 0.00 0.00 0.00 86 1011.3
20260509034846 73 360 3.0 6.0 0.00 0.00 0.00 86 1011.3
20260509034746 73 360 3.0 6.0 0.00 0.00 0.00 86 1011.3
20260509034624 73 360 3.0 6.0 0.00 0.00 0.00 86 1011.4
20260509034525 73 360 3.0 6.0 0.00 0.00 0.00 86 1011.3
20260509034426 73 360 3.0 6.0 0.00 0.00 0.00 86 1011.3
20260509034330 73 360 3.0 6.0 0.00 0.00 0.00 86 1011.3
20260509034230 73 360 2.0 6.0 0.00 0.00 0.00 86 1011.3
20260509034131 73 360 2.0 4.0 0.00 0.00 0.00 86 1011.3
20260509034030 73 360 2.0 4.0 0.00 0.00 0.00 86 1011.3
20260509033931 73 360 2.0 4.0 0.00 0.00 0.00 86 1011.2
20260509033831 73 360 2.0 4.0 0.00 0.00 0.00 86 1011.2
20260509033732 73 360 2.0 5.0 0.00 0.00 0.00 86 1011.3
20260509033616 73 360 2.0 5.0 0.00 0.00 0.00 86 1011.3
20260509033517 73 360 2.0 5.0 0.00 0.00 0.00 86 1011.3
20260509033418 73 360 2.0 5.0 0.00 0.00 0.00 86 1011.4
20260509033318 73 360 2.0 5.0 0.00 0.00 0.00 86 1011.3
20260509033220 73 360 2.0 5.0 0.00 0.00 0.00 86 1011.3
20260509033140 73 360 2.0 5.0 0.00 0.00 0.00 86 1011.4
20260509033021 73 360 2.0 5.0 0.00 0.00 0.00 86 1011.4
20260509032923 73 360 2.0 5.0 0.00 0.00 0.00 86 1011.4
20260509032825 73 360 2.0 5.0 0.00 0.00 0.00 86 1011.3
20260509032725 73 360 2.0 5.0 0.00 0.00 0.00 86 1011.3
20260509032626 73 360 2.0 5.0 0.00 0.00 0.00 86 1011.2
20260509032526 73 360 2.0 5.0 0.00 0.00 0.00 86 1011.2
20260509032427 73 360 2.0 4.0 0.00 0.00 0.00 86 1011.2
20260509032327 74 360 2.0 4.0 0.00 0.00 0.00 85 1011.3
20260509032231 74 360 2.0 4.0 0.00 0.00 0.00 85 1011.3
20260509032132 73 360 2.0 4.0 0.00 0.00 0.00 85 1011.2
20260509032035 74 360 2.0 4.0 0.00 0.00 0.00 85 1011.3
20260509031933 74 360 2.0 4.0 0.00 0.00 0.00 85 1011.2
20260509031835 74 360 2.0 4.0 0.00 0.00 0.00 85 1011.3
20260509031735 74 360 2.0 4.0 0.00 0.00 0.00 85 1011.3
20260509031655 74 360 3.0 5.0 0.00 0.00 0.00 85 1011.2
20260509031519 74 360 3.0 6.0 0.00 0.00 0.00 85 1011.3
20260509031419 74 360 3.0 6.0 0.00 0.00 0.00 85 1011.3
20260509031319 74 360 3.0 6.0 0.00 0.00 0.00 85 1011.2
20260509031220 74 360 3.0 6.0 0.00 0.00 0.00 85 1011.2
20260509031120 74 360 4.0 6.0 0.00 0.00 0.00 85 1011.2
20260509031020 74 360 4.0 6.0 0.00 0.00 0.00 85 1011.2
20260509030941 74 360 4.0 6.0 0.00 0.00 0.00 85 1011.1
20260509030824 74 360 4.0 6.0 0.00 0.00 0.00 85 1011.2
20260509030725 74 360 4.0 6.0 0.00 0.00 0.00 85 1011.2
20260509030624 74 360 4.0 6.0 0.00 0.00 0.00 85 1011.1
20260509030524 74 360 4.0 6.0 0.00 0.00 0.00 85 1011.1
20260509030424 74 360 4.0 6.0 0.00 0.00 0.00 85 1011.1
20260509030325 74 360 4.0 6.0 0.00 0.00 0.00 85 1011.0
20260509030226 74 360 4.0 6.0 0.00 0.00 0.00 85 1011.0
20260509030150 74 360 4.0 6.0 0.00 0.00 0.00 85 1011.0
20260509030110 74 360 4.0 6.0 0.00 0.00 0.00 85 1010.9
20260509025827 74 360 4.0 6.0 0.00 0.00 0.00 84 1010.8
20260509025729 74 360 4.0 6.0 0.00 0.00 0.00 84 1011.0
20260509025629 74 360 4.0 6.0 0.00 0.00 0.00 84 1010.9
20260509025550 74 360 4.0 6.0 0.00 0.00 0.00 84 1010.8
20260509025428 74 360 4.0 6.0 0.00 0.00 0.00 84 1010.8
20260509025329 74 360 4.0 6.0 0.00 0.00 0.00 84 1010.8
20260509025232 74 360 4.0 6.0 0.00 0.00 0.00 84 1010.8
20260509025132 74 360 3.0 6.0 0.00 0.00 0.00 84 1010.8
20260509025053 74 360 3.0 5.0 0.00 0.00 0.00 84 1010.7
20260509024953 74 360 3.0 5.0 0.00 0.00 0.00 84 1010.8
20260509024832 74 360 2.0 5.0 0.00 0.00 0.00 84 1010.8
20260509024753 74 360 2.0 5.0 0.00 0.00 0.00 84 1010.8
20260509024633 74 360 2.0 5.0 0.00 0.00 0.00 84 1010.9
20260509024517 74 360 3.0 5.0 0.00 0.00 0.00 84 1010.8
20260509024417 74 360 3.0 5.0 0.00 0.00 0.00 84 1010.7
20260509024338 74 360 3.0 5.0 0.00 0.00 0.00 84 1010.7
20260509024217 74 360 3.0 5.0 0.00 0.00 0.00 84 1010.8
20260509024117 74 360 3.0 5.0 0.00 0.00 0.00 84 1010.7
20260509024018 74 360 3.0 5.0 0.00 0.00 0.00 83 1010.7
20260509023918 74 360 3.0 5.0 0.00 0.00 0.00 83 1010.7
20260509023823 74 360 3.0 5.0 0.00 0.00 0.00 83 1010.7
20260509023723 74 360 3.0 5.0 0.00 0.00 0.00 83 1010.6
20260509023622 74 360 3.0 5.0 0.00 0.00 0.00 83 1010.7
20260509023520 74 360 3.0 5.0 0.00 0.00 0.00 83 1010.8
20260509023421 74 360 3.0 5.0 0.00 0.00 0.00 83 1010.7
20260509023321 75 360 3.0 5.0 0.00 0.00 0.00 83 1010.8
20260509023242 75 360 3.0 5.0 0.00 0.00 0.00 83 1010.8
20260509023121 75 360 3.0 5.0 0.00 0.00 0.00 83 1010.8
20260509023025 75 360 3.0 5.0 0.00 0.00 0.00 83 1010.8
20260509022946 75 360 2.0 5.0 0.00 0.00 0.00 83 1010.8
20260509022847 75 360 2.0 5.0 0.00 0.00 0.00 83 1010.8
20260509022745 75 360 2.0 4.0 0.00 0.00 0.00 83 1010.7
20260509022645 75 360 2.0 3.0 0.00 0.00 0.00 83 1010.7
20260509022524 75 360 1.0 3.0 0.00 0.00 0.00 83 1010.8
20260509022424 75 360 1.0 3.0 0.00 0.00 0.00 83 1010.8
20260509022325 75 360 1.0 3.0 0.00 0.00 0.00 83 1010.8
20260509022224 75 360 1.0 3.0 0.00 0.00 0.00 83 1010.7
20260509022149 75 360 1.0 3.0 0.00 0.00 0.00 83 1010.7
20260509022028 75 360 1.0 3.0 0.00 0.00 0.00 83 1010.8
20260509021929 75 360 1.0 3.0 0.00 0.00 0.00 83 1010.8
20260509021828 75 360 2.0 3.0 0.00 0.00 0.00 83 1010.8
20260509021729 75 360 2.0 6.0 0.00 0.00 0.00 83 1010.7
20260509021628 75 360 2.0 6.0 0.00 0.00 0.00 83 1010.8
20260509021529 75 360 2.0 6.0 0.00 0.00 0.00 83 1010.7
20260509021432 75 360 2.0 6.0 0.00 0.00 0.00 83 1010.6
20260509021333 75 360 2.0 6.0 0.00 0.00 0.00 82 1010.7
20260509021234 75 360 2.0 6.0 0.00 0.00 0.00 82 1010.5
20260509021135 75 360 2.0 6.0 0.00 0.00 0.00 82 1010.5
20260509021035 75 360 2.0 11.0 0.00 0.00 0.00 82 1010.5
20260509020935 75 360 3.0 11.0 0.00 0.00 0.00 82 1010.5
20260509020819 75 360 3.0 11.0 0.00 0.00 0.00 82 1010.4
20260509020740 75 360 3.0 11.0 0.00 0.00 0.00 82 1010.4
20260509020619 75 360 4.0 11.0 0.00 0.00 0.00 82 1010.4
20260509020520 75 360 4.0 11.0 0.00 0.00 0.00 82 1010.4
20260509020440 75 360 4.0 14.0 0.00 0.00 0.00 82 1010.3
20260509020319 75 360 4.0 14.0 0.00 0.00 0.00 82 1010.3
20260509020219 75 360 5.0 14.0 0.00 0.00 0.00 82 1010.3
20260509020119 75 360 5.0 14.0 0.00 0.00 0.00 82 1010.2
20260509020019 75 360 6.0 14.0 0.00 0.00 0.00 82 1010.2
20260509015923 75 360 6.0 14.0 0.00 0.00 0.00 82 1010.2
20260509015827 75 360 7.0 14.0 0.00 0.00 0.00 82 1010.2
20260509015725 75 360 7.0 14.0 0.00 0.00 0.00 82 1010.2
20260509015646 75 360 7.0 14.0 0.00 0.00 0.00 82 1010.1
20260509015525 75 360 7.0 13.0 0.00 0.00 0.00 82 1010.1
20260509015425 75 360 8.0 13.0 0.00 0.00 0.00 82 1010.1
20260509015346 75 360 8.0 13.0 0.00 0.00 0.00 82 1010.0
20260509015230 75 360 7.0 13.0 0.00 0.00 0.00 82 1010.0
20260509015131 76 360 7.0 13.0 0.00 0.00 0.00 81 1010.0
20260509015030 76 360 7.0 12.0 0.00 0.00 0.00 81 1010.0
20260509014932 76 360 6.0 12.0 0.00 0.00 0.00 81 1009.9
20260509014832 76 360 6.0 12.0 0.00 0.00 0.00 81 1010.0
20260509014753 76 360 6.0 12.0 0.00 0.00 0.00 81 1010.0
20260509014631 76 360 6.0 12.0 0.00 0.00 0.00 81 1010.0
20260509014530 76 360 6.0 12.0 0.00 0.00 0.00 81 1009.9
20260509014434 76 360 6.0 12.0 0.00 0.00 0.00 81 1010.0
20260509014335 76 360 6.0 12.0 0.00 0.00 0.00 81 1010.0
20260509014235 76 360 6.0 12.0 0.00 0.00 0.00 81 1010.0
20260509014155 76 360 6.0 10.0 0.00 0.00 0.00 81 1009.9
20260509014054 76 360 5.0 10.0 0.00 0.00 0.00 81 1009.9
20260509013933 76 360 5.0 10.0 0.00 0.00 0.00 81 1010.0
20260509013833 76 360 5.0 10.0 0.00 0.00 0.00 81 1009.9
20260509013732 76 360 5.0 10.0 0.00 0.00 0.00 81 1010.0
20260509013631 76 360 5.0 10.0 0.00 0.00 0.00 81 1010.0
20260509013535 76 360 5.0 10.0 0.00 0.00 0.00 81 1010.0
20260509013434 76 360 5.0 11.0 0.00 0.00 0.00 81 1010.0
20260509013333 76 360 5.0 11.0 0.00 0.00 0.00 81 1009.9
20260509013234 76 360 4.0 11.0 0.00 0.00 0.00 81 1010.0
20260509013135 76 360 4.0 11.0 0.00 0.00 0.00 81 1010.0
20260509013055 76 360 5.0 11.0 0.00 0.00 0.00 81 1010.1
20260509012935 76 360 5.0 11.0 0.00 0.00 0.00 81 1010.0
20260509012836 76 360 5.0 11.0 0.00 0.00 0.00 80 1010.0
20260509012718 76 360 5.0 9.0 0.00 0.00 0.00 80 1010.1
20260509012619 76 360 5.0 9.0 0.00 0.00 0.00 80 1010.0
20260509012519 76 360 5.0 9.0 0.00 0.00 0.00 80 1010.1
20260509012419 76 360 5.0 9.0 0.00 0.00 0.00 80 1010.0
20260509012320 76 360 5.0 9.0 0.00 0.00 0.00 80 1010.1
20260509012218 76 360 5.0 9.0 0.00 0.00 0.00 80 1010.1
20260509012119 76 360 4.0 9.0 0.00 0.00 0.00 80 1010.0
20260509012023 76 360 4.0 9.0 0.00 0.00 0.00 80 1010.1
20260509011924 76 360 4.0 9.0 0.00 0.00 0.00 80 1010.0
20260509011824 76 360 3.0 9.0 0.00 0.00 0.00 80 1010.1
20260509011724 76 360 4.0 9.0 0.00 0.00 0.00 80 1010.1
20260509011625 76 360 4.0 9.0 0.00 0.00 0.00 80 1010.1
20260509011525 76 360 4.0 10.0 0.00 0.00 0.00 80 1010.0
20260509011430 76 360 4.0 10.0 0.00 0.00 0.00 80 1010.0
20260509011330 76 360 4.0 10.0 0.00 0.00 0.00 80 1010.0
20260509011231 76 360 4.0 10.0 0.00 0.00 0.00 80 1010.0
20260509011132 76 360 5.0 10.0 0.00 0.00 0.00 80 1010.0
20260509011032 76 360 5.0 10.0 0.00 0.00 0.00 80 1010.1
20260509010933 76 360 5.0 10.0 0.00 0.00 0.00 80 1010.0
20260509010818 76 360 5.0 10.0 0.00 0.00 0.00 80 1010.0
20260509010719 76 360 5.0 10.0 0.00 0.00 0.00 80 1009.9
20260509010619 76 360 4.0 10.0 0.00 0.00 0.00 80 1010.0
20260509010520 76 360 4.0 10.0 0.00 0.00 0.00 80 1010.0
20260509010440 77 360 4.0 9.0 0.00 0.00 0.00 80 1010.1
20260509010320 77 360 4.0 9.0 0.00 0.00 0.00 80 1010.0
20260509010220 77 360 3.0 8.0 0.00 0.00 0.00 80 1010.0
20260509010125 77 360 3.0 12.0 0.00 0.00 0.00 80 1010.0
20260509010025 77 360 4.0 12.0 0.00 0.00 0.00 80 1010.0
20260509005924 77 360 4.0 12.0 0.00 0.00 0.00 80 1009.9
20260509005825 77 360 5.0 12.0 0.00 0.00 0.00 80 1010.0
20260509005746 76 360 6.0 12.0 0.00 0.00 0.00 80 1009.9
20260509005625 77 360 6.0 12.0 0.00 0.00 0.00 80 1009.8
20260509005525 77 360 6.0 12.0 0.00 0.00 0.00 80 1009.9
20260509005425 77 360 6.0 12.0 0.00 0.00 0.00 80 1009.9
20260509005330 77 360 6.0 12.0 0.00 0.00 0.00 80 1009.9
20260509005231 77 360 6.0 12.0 0.00 0.00 0.00 79 1009.9
20260509005129 77 360 6.0 12.0 0.00 0.00 0.00 79 1009.9
20260509005029 77 360 5.0 12.0 0.00 0.00 0.00 79 1009.9
20260509004930 77 360 5.0 12.0 0.00 0.00 0.00 79 1009.8
20260509004831 77 360 5.0 12.0 0.00 0.00 0.00 79 1009.8
20260509004752 77 360 6.0 12.0 0.00 0.00 0.00 79 1009.8
20260509004616 77 360 6.0 12.0 0.00 0.00 0.00 79 1009.9
20260509004517 77 360 6.0 12.0 0.00 0.00 0.00 79 1009.8
20260509004417 77 360 7.0 12.0 0.00 0.00 0.00 79 1009.8
20260509004318 77 360 7.0 12.0 0.00 0.00 0.00 79 1009.8
20260509004219 77 360 8.0 12.0 0.00 0.00 0.00 79 1009.8
20260509004120 77 360 7.0 12.0 0.00 0.00 0.00 79 1009.8
20260509004040 77 360 7.0 12.0 0.00 0.00 0.00 79 1009.8
20260509003924 77 360 7.0 12.0 0.00 0.00 0.00 79 1009.8
20260509003823 77 360 6.0 11.0 0.00 0.00 0.00 79 1009.9
20260509003724 77 360 6.0 11.0 0.00 0.00 0.00 79 1009.8
20260509003624 77 360 7.0 11.0 0.00 0.00 0.00 79 1009.8
20260509003545 77 360 7.0 11.0 0.00 0.00 0.00 79 1009.8
20260509003424 77 360 7.0 12.0 0.00 0.00 0.00 79 1009.7
20260509003345 77 360 7.0 12.0 0.00 0.00 0.00 79 1009.8
20260509003243 77 360 7.0 14.0 0.00 0.00 0.00 79 1009.8
20260509003127 77 360 8.0 14.0 0.00 0.00 0.00 79 1009.8
20260509003027 77 360 8.0 14.0 0.00 0.00 0.00 79 1009.8
20260509002928 77 360 8.0 13.0 0.00 0.00 0.00 79 1009.8
20260509002828 77 360 8.0 13.0 0.00 0.00 0.00 79 1009.8
20260509002730 77 360 9.0 13.0 0.00 0.00 0.00 79 1009.8
20260509002629 77 360 8.0 13.0 0.00 0.00 0.00 79 1009.8
20260509002535 77 360 8.0 13.0 0.00 0.00 0.00 79 1009.9
20260509002455 77 360 8.0 13.0 0.00 0.00 0.00 79 1009.9
20260509002334 77 360 7.0 11.0 0.00 0.00 0.00 78 1009.9
20260509002235 77 360 7.0 11.0 0.00 0.00 0.00 78 1009.9
20260509002156 77 360 7.0 11.0 0.00 0.00 0.00 78 1009.8
20260509002056 77 360 7.0 11.0 0.00 0.00 0.00 78 1009.9
20260509001934 77 360 6.0 9.0 0.00 0.00 0.00 78 1009.9
20260509001835 77 360 6.0 10.0 0.00 0.00 0.00 78 1009.9
20260509001720 77 360 6.0 10.0 0.00 0.00 0.00 78 1010.0
20260509001620 77 360 5.0 10.0 0.00 0.00 0.00 78 1009.9
20260509001522 77 360 5.0 10.0 0.00 0.00 0.00 78 1009.9
20260509001421 77 360 5.0 10.0 0.00 0.00 0.00 78 1009.9
20260509001322 77 360 5.0 10.0 0.00 0.00 0.00 79 1010.0
20260509001223 77 360 6.0 15.0 0.00 0.00 0.00 78 1009.9
20260509001127 77 360 6.0 15.0 0.00 0.00 0.00 78 1010.0
20260509001028 77 360 6.0 15.0 0.00 0.00 0.00 78 1010.0
20260509000948 77 360 7.0 15.0 0.00 0.00 0.00 78 1009.9
20260509000828 77 360 7.0 15.0 0.00 0.00 0.00 78 1009.9
20260509000729 77 360 8.0 15.0 0.00 0.00 0.00 78 1010.0
20260509000630 77 360 8.0 15.0 0.00 0.00 0.00 78 1010.0
20260509000549 77 360 8.0 15.0 0.00 0.00 0.00 78 1010.0
20260509000429 78 360 8.0 15.0 0.00 0.00 0.00 78 1009.9
20260509000333 78 360 7.0 15.0 0.00 0.00 0.00 78 1010.0
20260509000234 78 360 7.0 15.0 0.00 0.00 0.00 77 1010.0
20260509000135 78 360 7.0 14.0 0.00 0.00 0.00 77 1010.0
20260509000016 78 360 7.0 14.0 0.00 0.00 0.00 77 1010.0
20260508235917 78 360 9.0 14.0 0.00 0.00 0.00 77 1009.9
20260508235819 78 360 9.0 14.0 0.00 0.00 0.00 77 1009.9
20260508235742 78 360 9.0 14.0 0.00 0.00 0.00 77 1010.0
20260508235621 78 360 9.0 14.0 0.00 0.00 0.00 77 1009.9
20260508235521 78 360 8.0 13.0 0.00 0.00 0.00 77 1009.9
20260508235442 78 360 7.0 13.0 0.00 0.00 0.00 77 1009.8
20260508235341 78 360 6.0 12.0 0.00 0.00 0.00 77 1009.9
20260508235221 78 360 6.0 12.0 0.00 0.00 0.00 77 1009.9
20260508235122 78 360 6.0 12.0 0.00 0.00 0.00 77 1009.9
20260508235021 78 360 6.0 12.0 0.00 0.00 0.00 77 1009.9
20260508234926 78 360 7.0 12.0 0.00 0.00 0.00 77 1009.9
20260508234847 78 360 7.0 12.0 0.00 0.00 0.00 77 1009.9
20260508234727 78 360 7.0 12.0 0.00 0.00 0.00 77 1009.9
20260508234627 78 360 7.0 12.0 0.00 0.00 0.00 76 1009.9
20260508234527 78 360 7.0 12.0 0.00 0.00 0.00 76 1009.9
20260508234427 78 360 7.0 12.0 0.00 0.00 0.00 76 1009.9
20260508234327 78 360 7.0 12.0 0.00 0.00 0.00 76 1009.8
20260508234232 78 360 6.0 12.0 0.00 0.00 0.00 76 1009.8
20260508234133 78 360 7.0 12.0 0.00 0.00 0.00 76 1009.9
20260508234033 78 360 6.0 12.0 0.00 0.00 0.00 76 1009.9
20260508233934 78 360 6.0 12.0 0.00 0.00 0.00 76 1009.8
20260508233835 78 360 6.0 13.0 0.00 0.00 0.00 76 1009.9
20260508233734 78 360 7.0 15.0 0.00 0.00 0.00 76 1009.8
20260508233619 78 360 8.0 15.0 0.00 0.00 0.00 76 1009.9
20260508233520 78 360 7.0 15.0 0.00 0.00 0.00 76 1009.9
20260508233441 78 360 8.0 15.0 0.00 0.00 0.00 76 1009.9
20260508233320 78 360 8.0 15.0 0.00 0.00 0.00 76 1009.9
20260508233220 78 360 8.0 15.0 0.00 0.00 0.00 76 1009.9
20260508233121 78 360 8.0 15.0 0.00 0.00 0.00 76 1009.9
20260508233022 78 360 8.0 15.0 0.00 0.00 0.00 76 1009.9
20260508232927 78 360 8.0 15.0 0.00 0.00 0.00 76 1009.9
20260508232828 78 360 9.0 15.0 0.00 0.00 0.00 76 1009.9
20260508232747 78 360 9.0 15.0 0.00 0.00 0.00 76 1009.9
20260508232626 78 360 8.0 15.0 0.00 0.00 0.00 76 1009.8
20260508232526 78 360 8.0 15.0 0.00 0.00 0.00 76 1009.8
20260508232426 78 360 8.0 13.0 0.00 0.00 0.00 76 1009.8
20260508232326 78 360 8.0 15.0 0.00 0.00 0.00 76 1009.7
20260508232231 78 360 9.0 15.0 0.00 0.00 0.00 76 1009.7
20260508232152 78 360 8.0 15.0 0.00 0.00 0.00 76 1009.8
20260508232031 78 360 8.0 15.0 0.00 0.00 0.00 76 1009.8
20260508231931 78 360 8.0 15.0 0.00 0.00 0.00 76 1009.8
20260508231831 78 360 8.0 15.0 0.00 0.00 0.00 76 1009.8
20260508231730 78 360 9.0 15.0 0.00 0.00 0.00 76 1009.7
20260508231630 78 360 9.0 15.0 0.00 0.00 0.00 76 1009.8
20260508231531 78 360 9.0 15.0 0.00 0.00 0.00 76 1009.8
20260508231435 78 360 8.0 15.0 0.00 0.00 0.00 76 1009.8
20260508231335 78 360 7.0 13.0 0.00 0.00 0.00 76 1009.8
20260508231256 78 360 7.0 13.0 0.00 0.00 0.00 76 1009.8
20260508231134 78 360 7.0 13.0 0.00 0.00 0.00 76 1009.8
20260508231035 78 360 8.0 13.0 0.00 0.00 0.00 76 1009.8
20260508230916 78 360 8.0 15.0 0.00 0.00 0.00 75 1009.8
20260508230818 78 360 8.0 15.0 0.00 0.00 0.00 75 1009.8
20260508230722 78 360 8.0 15.0 0.00 0.00 0.00 75 1009.9
20260508230621 78 360 8.0 15.0 0.00 0.00 0.00 75 1010.0
20260508230541 78 360 9.0 15.0 0.00 0.00 0.00 75 1009.9
20260508230422 78 360 9.0 15.0 0.00 0.00 0.00 75 1010.0
20260508230321 78 360 9.0 15.0 0.00 0.00 0.00 75 1009.8
20260508230222 78 360 9.0 15.0 0.00 0.00 0.00 75 1009.9
20260508230123 78 360 9.0 15.0 0.00 0.00 0.00 75 1009.9
20260508230023 78 360 9.0 14.0 0.00 0.00 0.00 75 1009.9
20260508225927 78 360 9.0 14.0 0.00 0.00 0.00 75 1009.9
20260508225829 78 360 9.0 14.0 0.00 0.00 0.00 75 1010.0
20260508225727 78 360 9.0 14.0 0.00 0.00 0.00 75 1009.9
20260508225628 78 360 9.0 14.0 0.00 0.00 0.00 75 1009.9
20260508225528 78 360 9.0 14.0 0.00 0.00 0.00 75 1009.9
20260508225428 78 360 8.0 14.0 0.00 0.00 0.00 75 1009.9
20260508225332 78 360 8.0 13.0 0.00 0.00 0.00 75 1010.0
20260508225232 78 360 8.0 14.0 0.00 0.00 0.00 75 1009.9
20260508225134 78 360 8.0 14.0 0.00 0.00 0.00 75 1009.9
20260508225035 78 360 8.0 14.0 0.00 0.00 0.00 75 1010.0
20260508224956 78 360 9.0 14.0 0.00 0.00 0.00 75 1009.9
20260508224836 78 360 8.0 14.0 0.00 0.00 0.00 75 1009.9
20260508224716 78 360 8.0 14.0 0.00 0.00 0.00 75 1009.9
20260508224621 78 360 8.0 14.0 0.00 0.00 0.00 75 1010.0
20260508224541 79 360 9.0 15.0 0.00 0.00 0.00 75 1009.9
20260508224421 79 360 9.0 15.0 0.00 0.00 0.00 75 1009.9
20260508224321 79 360 10.0 15.0 0.00 0.00 0.00 74 1009.8
20260508224222 79 360 9.0 15.0 0.00 0.00 0.00 74 1009.8
20260508224143 79 360 9.0 15.0 0.00 0.00 0.00 74 1009.9
20260508224022 79 360 10.0 15.0 0.00 0.00 0.00 74 1009.8
20260508223927 79 360 10.0 15.0 0.00 0.00 0.00 74 1009.8
20260508223847 79 360 10.0 15.0 0.00 0.00 0.00 74 1009.8
20260508223727 79 360 9.0 15.0 0.00 0.00 0.00 74 1009.8
20260508223627 79 360 9.0 12.0 0.00 0.00 0.00 74 1009.8
20260508223528 79 360 8.0 12.0 0.00 0.00 0.00 74 1009.8
20260508223448 79 360 7.0 13.0 0.00 0.00 0.00 74 1009.8
20260508223328 79 360 7.0 14.0 0.00 0.00 0.00 74 1009.9
20260508223228 79 360 6.0 14.0 0.00 0.00 0.00 74 1009.9
20260508223132 79 360 6.0 14.0 0.00 0.00 0.00 74 1009.9
20260508223032 79 360 7.0 14.0 0.00 0.00 0.00 74 1009.9
20260508222954 79 360 8.0 14.0 0.00 0.00 0.00 74 1009.9
20260508222852 79 360 9.0 14.0 0.00 0.00 0.00 74 1010.0
20260508222753 79 360 8.0 15.0 0.00 0.00 0.00 74 1009.9
20260508222632 79 360 8.0 15.0 0.00 0.00 0.00 74 1009.9
20260508222533 79 360 7.0 15.0 0.00 0.00 0.00 74 1009.9
20260508222416 79 360 5.0 15.0 0.00 0.00 0.00 74 1009.8
20260508222316 79 360 6.0 15.0 0.00 0.00 0.00 74 1009.8
20260508222216 79 360 7.0 15.0 0.00 0.00 0.00 74 1009.9
20260508222137 79 360 8.0 15.0 0.00 0.00 0.00 74 1009.9
20260508222016 79 360 8.0 15.0 0.00 0.00 0.00 74 1009.9
20260508221937 79 360 8.0 15.0 0.00 0.00 0.00 74 1009.9
20260508221857 79 360 8.0 15.0 0.00 0.00 0.00 74 1009.9
20260508221716 79 360 7.0 12.0 0.00 0.00 0.00 73 1009.9
20260508221620 79 360 7.0 12.0 0.00 0.00 0.00 73 1010.0
20260508221521 79 360 6.0 12.0 0.00 0.00 0.00 74 1010.0
20260508221421 79 360 5.0 12.0 0.00 0.00 0.00 74 1010.0
20260508221320 79 360 5.0 12.0 0.00 0.00 0.00 74 1010.0
20260508221220 79 360 4.0 13.0 0.00 0.00 0.00 74 1010.0
20260508221121 79 360 4.0 13.0 0.00 0.00 0.00 74 1010.0
20260508221022 79 360 4.0 13.0 0.00 0.00 0.00 74 1010.1
20260508220943 79 360 5.0 13.0 0.00 0.00 0.00 74 1010.0
20260508220826 79 360 7.0 13.0 0.00 0.00 0.00 74 1010.0
20260508220748 79 360 8.0 13.0 0.00 0.00 0.00 74 1010.0
20260508220627 79 360 9.0 15.0 0.00 0.00 0.00 73 1010.0
20260508220547 79 360 8.0 15.0 0.00 0.00 0.00 74 1010.1
20260508220427 79 360 8.0 15.0 0.00 0.00 0.00 74 1010.1
20260508220328 79 360 7.0 15.0 0.00 0.00 0.00 73 1010.1
20260508220228 79 360 6.0 15.0 0.00 0.00 0.00 73 1010.0
20260508220132 79 360 7.0 15.0 0.00 0.00 0.00 73 1010.0
20260508220053 79 360 8.0 15.0 0.00 0.00 0.00 73 1010.0
20260508215933 79 360 7.0 15.0 0.00 0.00 0.00 73 1010.0
20260508215833 79 360 7.0 15.0 0.00 0.00 0.00 73 1010.1
20260508215735 79 360 8.0 15.0 0.00 0.00 0.00 73 1010.1
20260508215635 80 360 7.0 15.0 0.00 0.00 0.00 73 1010.1
20260508215516 80 360 6.0 12.0 0.00 0.00 0.00 73 1010.1
20260508215420 80 360 7.0 12.0 0.00 0.00 0.00 73 1010.0
20260508215321 80 360 7.0 12.0 0.00 0.00 0.00 73 1010.1
20260508215219 79 360 8.0 12.0 0.00 0.00 0.00 73 1010.1
20260508215121 79 360 8.0 12.0 0.00 0.00 0.00 73 1010.0
20260508215021 79 360 8.0 12.0 0.00 0.00 0.00 72 1010.1
20260508214921 79 360 7.0 12.0 0.00 0.00 0.00 72 1010.1
20260508214822 80 360 7.0 12.0 0.00 0.00 0.00 73 1010.1
20260508214726 80 360 6.0 12.0 0.00 0.00 0.00 73 1010.1
20260508214627 80 360 6.0 12.0 0.00 0.00 0.00 73 1010.1
20260508214548 79 360 6.0 12.0 0.00 0.00 0.00 73 1010.1
20260508214447 79 360 6.0 12.0 0.00 0.00 0.00 73 1010.1
20260508214326 79 360 5.0 13.0 0.00 0.00 0.00 73 1010.1
20260508214226 79 360 5.0 13.0 0.00 0.00 0.00 73 1010.1
20260508214127 79 360 5.0 13.0 0.00 0.00 0.00 73 1010.1
20260508214028 79 360 5.0 14.0 0.00 0.00 0.00 73 1010.2
20260508213931 79 360 5.0 14.0 0.00 0.00 0.00 73 1010.1
20260508213832 79 360 6.0 14.0 0.00 0.00 0.00 73 1010.1
20260508213749 79 360 7.0 14.0 0.00 0.00 0.00 73 1010.1